Wetterdaten: Donnerstag, 20.10.2016
Datum Zeit Temp. Aussen Temp. o. S. +5cm Feuchte Auss BlattFeu 1 Luftdruck Regen Sonnenschein Regendauer Solar Windben Empfang
20.10.2016 00:00 6,6 C 6,7 C 5,6 C 94 % 9 lf 1014,1 hPa 0,0 l/m 0 min 0 min 0 W/m 8,4 km/h (2 Bft) 91,49 %
20.10.2016 00:02 6,6 C 6,7 C 5,6 C 94 % 8 lf 1014,1 hPa 0,0 l/m 0 min 0 min 0 W/m 8,4 km/h (2 Bft) 86,84 %
20.10.2016 00:05 6,6 C 6,7 C 5,6 C 94 % 7 lf 1014,1 hPa 0,0 l/m 0 min 0 min 0 W/m 10,5 km/h (2 Bft) 92,41 %
20.10.2016 00:08 6,6 C 6,7 C 5,6 C 94 % 6 lf 1014,0 hPa 0,0 l/m 0 min 0 min 0 W/m 12,6 km/h (3 Bft) 96,72 %
20.10.2016 00:10 6,6 C 6,7 C 5,6 C 94 % 6 lf 1014,0 hPa 0,0 l/m 0 min 0 min 0 W/m 6,3 km/h (2 Bft) 93,62 %
20.10.2016 00:12 6,6 C 6,7 C 5,6 C 94 % 5 lf 1014,1 hPa 0,0 l/m 0 min 0 min 0 W/m 4,2 km/h (1 Bft) 91,49 %
20.10.2016 00:14 6,6 C 6,7 C 5,6 C 94 % 4 lf 1014,1 hPa 0,0 l/m 0 min 0 min 0 W/m 6,3 km/h (2 Bft) 93,62 %
20.10.2016 00:16 6,7 C 6,7 C 5,6 C 94 % 4 lf 1014,1 hPa 0,0 l/m 0 min 0 min 0 W/m 4,2 km/h (1 Bft) 95,65 %
20.10.2016 00:18 6,7 C 6,7 C 5,6 C 94 % 4 lf 1014,2 hPa 0,0 l/m 0 min 0 min 0 W/m 6,3 km/h (2 Bft) 91,49 %
20.10.2016 00:20 6,7 C 6,7 C 5,6 C 94 % 4 lf 1014,1 hPa 0,0 l/m 0 min 0 min 0 W/m 4,2 km/h (1 Bft) 95,74 %
20.10.2016 00:22 6,7 C 6,7 C 5,6 C 94 % 4 lf 1014,1 hPa 0,0 l/m 0 min 0 min 0 W/m 4,2 km/h (1 Bft) 97,87 %
20.10.2016 00:24 6,7 C 6,7 C 5,6 C 94 % 4 lf 1014,1 hPa 0,0 l/m 0 min 0 min 0 W/m 6,3 km/h (2 Bft) 97,87 %
20.10.2016 00:26 6,7 C 6,7 C 5,6 C 94 % 4 lf 1014,1 hPa 0,0 l/m 0 min 0 min 0 W/m 4,2 km/h (1 Bft) 97,87 %
20.10.2016 00:28 6,7 C 6,7 C 5,6 C 94 % 3 lf 1014,1 hPa 0,0 l/m 0 min 0 min 0 W/m 4,2 km/h (1 Bft) 93,48 %
20.10.2016 00:30 6,7 C 6,7 C 5,6 C 94 % 3 lf 1014,1 hPa 0,0 l/m 0 min 0 min 0 W/m 2,1 km/h (1 Bft) 100,00 %
20.10.2016 00:32 6,7 C 6,7 C 5,6 C 94 % 3 lf 1014,2 hPa 0,0 l/m 0 min 0 min 0 W/m 4,2 km/h (1 Bft) 100,00 %
20.10.2016 00:34 6,7 C 6,7 C 5,6 C 94 % 3 lf 1014,1 hPa 0,0 l/m 0 min 0 min 0 W/m 2,1 km/h (1 Bft) 100,00 %
20.10.2016 00:36 6,7 C 6,7 C 5,6 C 95 % 3 lf 1014,1 hPa 0,0 l/m 0 min 0 min 0 W/m 4,2 km/h (1 Bft) 98,15 %
20.10.2016 00:38 6,7 C 6,7 C 5,6 C 95 % 3 lf 1014,2 hPa 0,0 l/m 0 min 0 min 0 W/m 2,1 km/h (1 Bft) 100,00 %
20.10.2016 00:40 6,7 C 6,7 C 5,6 C 95 % 3 lf 1014,2 hPa 0,0 l/m 0 min 0 min 0 W/m 2,1 km/h (1 Bft) 95,74 %
20.10.2016 00:42 6,7 C 6,7 C 5,6 C 95 % 3 lf 1014,2 hPa 0,0 l/m 0 min 0 min 0 W/m 2,1 km/h (1 Bft) 97,87 %
20.10.2016 00:44 6,7 C 6,7 C 5,6 C 95 % 3 lf 1014,2 hPa 0,0 l/m 0 min 0 min 0 W/m 0,0 km/h (0 Bft) 97,87 %
20.10.2016 00:46 6,7 C 6,7 C 5,6 C 95 % 3 lf 1014,2 hPa 0,0 l/m 0 min 0 min 0 W/m 0,0 km/h (0 Bft) 97,87 %
20.10.2016 00:48 6,7 C 6,7 C 5,6 C 95 % 3 lf 1014,2 hPa 0,0 l/m 0 min 0 min 0 W/m 0,0 km/h (0 Bft) 100,00 %
20.10.2016 00:50 6,7 C 6,7 C 5,6 C 95 % 3 lf 1014,2 hPa 0,0 l/m 0 min 0 min 0 W/m 0,0 km/h (0 Bft) 97,87 %
20.10.2016 00:52 6,7 C 6,7 C 5,6 C 95 % 9 lf 1014,3 hPa 0,0 l/m 0 min 2 min 0 W/m 0,0 km/h (0 Bft) 97,87 %
20.10.2016 00:54 6,7 C 6,7 C 5,6 C 94 % 13 lf 1014,2 hPa 0,0 l/m 0 min 2 min 0 W/m 0,0 km/h (0 Bft) 95,74 %
20.10.2016 00:56 6,7 C 6,7 C 5,6 C 94 % 14 lf 1014,2 hPa 0,0 l/m 0 min 2 min 0 W/m 0,0 km/h (0 Bft) 97,87 %
20.10.2016 00:58 6,7 C 6,7 C 5,6 C 95 % 15 lf 1014,2 hPa 0,0 l/m 0 min 2 min 0 W/m 6,3 km/h (2 Bft) 95,74 %
20.10.2016 01:00 6,7 C 6,7 C 5,6 C 95 % 15 lf 1014,2 hPa 0,0 l/m 0 min 2 min 0 W/m 8,4 km/h (2 Bft) 97,83 %
20.10.2016 01:02 6,7 C 6,7 C 5,6 C 95 % 15 lf 1014,1 hPa 0,0 l/m 0 min 2 min 0 W/m 6,3 km/h (2 Bft) 97,92 %
20.10.2016 01:04 6,7 C 6,7 C 5,6 C 95 % 15 lf 1014,1 hPa 0,0 l/m 0 min 2 min 0 W/m 6,3 km/h (2 Bft) 94,29 %
20.10.2016 01:06 6,7 C 6,7 C 5,6 C 95 % 15 lf 1014,1 hPa 0,0 l/m 0 min 2 min 0 W/m 6,3 km/h (2 Bft) 94,00 %
20.10.2016 01:08 6,7 C 6,7 C 5,6 C 95 % 15 lf 1014,1 hPa 0,2 l/m 0 min 2 min 0 W/m 8,4 km/h (2 Bft) 93,62 %
20.10.2016 01:10 6,7 C 6,7 C 5,6 C 95 % 15 lf 1014,1 hPa 0,0 l/m 0 min 2 min 0 W/m 8,4 km/h (2 Bft) 95,74 %
20.10.2016 01:12 6,7 C 6,7 C 5,6 C 95 % 15 lf 1014,1 hPa 0,0 l/m 0 min 2 min 0 W/m 6,3 km/h (2 Bft) 97,87 %
20.10.2016 01:14 6,7 C 6,7 C 5,6 C 95 % 15 lf 1014,0 hPa 0,0 l/m 0 min 2 min 0 W/m 6,3 km/h (2 Bft) 97,83 %
20.10.2016 01:16 6,8 C 6,7 C 5,6 C 95 % 15 lf 1014,0 hPa 0,2 l/m 0 min 2 min 0 W/m 6,3 km/h (2 Bft) 95,74 %
20.10.2016 01:18 6,8 C 6,7 C 5,6 C 95 % 15 lf 1014,0 hPa 0,0 l/m 0 min 2 min 0 W/m 4,2 km/h (1 Bft) 97,87 %
20.10.2016 01:20 6,8 C 6,7 C 5,6 C 95 % 15 lf 1013,9 hPa 0,0 l/m 0 min 2 min 0 W/m 4,2 km/h (1 Bft) 97,87 %
20.10.2016 01:22 6,8 C 6,7 C 5,6 C 95 % 15 lf 1013,9 hPa 0,0 l/m 0 min 2 min 0 W/m 6,3 km/h (2 Bft) 93,62 %
20.10.2016 01:24 6,8 C 6,7 C 5,6 C 95 % 15 lf 1013,9 hPa 0,2 l/m 0 min 2 min 0 W/m 4,2 km/h (1 Bft) 97,87 %
20.10.2016 01:26 6,8 C 6,7 C 5,6 C 95 % 15 lf 1014,0 hPa 0,0 l/m 0 min 2 min 0 W/m 6,3 km/h (2 Bft) 95,65 %
20.10.2016 01:28 6,8 C 6,7 C 5,6 C 95 % 15 lf 1013,9 hPa 0,0 l/m 0 min 2 min 0 W/m 4,2 km/h (1 Bft) 95,74 %
20.10.2016 01:30 6,8 C 6,7 C 5,6 C 95 % 15 lf 1013,9 hPa 0,0 l/m 0 min 2 min 0 W/m 10,5 km/h (2 Bft) 100,00 %
20.10.2016 01:32 6,8 C 6,7 C 5,6 C 95 % 15 lf 1013,8 hPa 0,0 l/m 0 min 2 min 0 W/m 8,4 km/h (2 Bft) 96,23 %
20.10.2016 01:34 6,8 C 6,7 C 5,6 C 95 % 15 lf 1013,8 hPa 0,0 l/m 0 min 2 min 0 W/m 8,4 km/h (2 Bft) 100,00 %
20.10.2016 01:36 6,8 C 6,7 C 5,6 C 95 % 15 lf 1013,6 hPa 0,0 l/m 0 min 2 min 0 W/m 8,4 km/h (2 Bft) 97,96 %
20.10.2016 01:38 6,8 C 6,7 C 5,6 C 95 % 15 lf 1013,7 hPa 0,0 l/m 0 min 2 min 0 W/m 10,5 km/h (2 Bft) 100,00 %
20.10.2016 01:40 6,8 C 6,7 C 5,6 C 95 % 15 lf 1013,7 hPa 0,0 l/m 0 min 2 min 0 W/m 8,4 km/h (2 Bft) 100,00 %
20.10.2016 01:42 6,9 C 6,7 C 5,6 C 95 % 15 lf 1013,6 hPa 0,0 l/m 0 min 2 min 0 W/m 8,4 km/h (2 Bft) 100,00 %
20.10.2016 01:44 6,9 C 6,7 C 5,6 C 95 % 15 lf 1013,6 hPa 0,0 l/m 0 min 2 min 0 W/m 8,4 km/h (2 Bft) 95,74 %
20.10.2016 01:46 6,9 C 6,7 C 5,6 C 95 % 15 lf 1013,7 hPa 0,0 l/m 0 min 2 min 0 W/m 8,4 km/h (2 Bft) 100,00 %
20.10.2016 01:48 6,9 C 6,7 C 5,6 C 95 % 15 lf 1013,6 hPa 0,0 l/m 0 min 2 min 0 W/m 10,5 km/h (2 Bft) 100,00 %
20.10.2016 01:50 6,9 C 6,7 C 5,6 C 95 % 15 lf 1013,6 hPa 0,0 l/m 0 min 2 min 0 W/m 10,5 km/h (2 Bft) 95,65 %
20.10.2016 01:52 6,9 C 6,7 C 5,6 C 95 % 15 lf 1013,6 hPa 0,0 l/m 0 min 2 min 0 W/m 10,5 km/h (2 Bft) 100,00 %
20.10.2016 01:54 6,9 C 6,7 C 5,6 C 95 % 15 lf 1013,6 hPa 0,2 l/m 0 min 2 min 0 W/m 12,6 km/h (3 Bft) 97,87 %
20.10.2016 01:56 6,9 C 6,7 C 5,6 C 95 % 15 lf 1013,6 hPa 0,0 l/m 0 min 2 min 0 W/m 8,4 km/h (2 Bft) 100,00 %
20.10.2016 01:58 6,9 C 6,7 C 5,6 C 96 % 15 lf 1013,6 hPa 0,0 l/m 0 min 2 min 0 W/m 10,5 km/h (2 Bft) 97,87 %
20.10.2016 02:00 6,9 C 6,7 C 5,6 C 96 % 15 lf 1013,6 hPa 0,0 l/m 0 min 2 min 0 W/m 8,4 km/h (2 Bft) 100,00 %
20.10.2016 02:02 6,9 C 6,7 C 5,6 C 96 % 15 lf 1013,5 hPa 0,0 l/m 0 min 2 min 0 W/m 10,5 km/h (2 Bft) 95,74 %
20.10.2016 02:04 6,9 C 6,7 C 5,6 C 96 % 15 lf 1013,4 hPa 0,0 l/m 0 min 2 min 0 W/m 10,5 km/h (2 Bft) 97,87 %
20.10.2016 02:06 6,9 C 6,7 C 5,6 C 96 % 15 lf 1013,4 hPa 0,0 l/m 0 min 2 min 0 W/m 10,5 km/h (2 Bft) 98,18 %
20.10.2016 02:08 6,9 C 6,7 C 5,6 C 96 % 15 lf 1013,5 hPa 0,2 l/m 0 min 2 min 0 W/m 8,4 km/h (2 Bft) 97,87 %
20.10.2016 02:10 6,9 C 6,7 C 5,6 C 96 % 15 lf 1013,5 hPa 0,0 l/m 0 min 2 min 0 W/m 12,6 km/h (3 Bft) 100,00 %
20.10.2016 02:12 7,0 C 6,7 C 5,6 C 96 % 15 lf 1013,5 hPa 0,0 l/m 0 min 2 min 0 W/m 12,6 km/h (3 Bft) 95,65 %
20.10.2016 02:14 6,9 C 6,7 C 5,6 C 95 % 15 lf 1013,5 hPa 0,0 l/m 0 min 2 min 0 W/m 10,5 km/h (2 Bft) 95,74 %
20.10.2016 02:16 6,9 C 6,7 C 5,6 C 96 % 15 lf 1013,4 hPa 0,0 l/m 0 min 2 min 0 W/m 10,5 km/h (2 Bft) 89,36 %
20.10.2016 02:18 6,9 C 6,7 C 5,6 C 96 % 15 lf 1013,4 hPa 0,0 l/m 0 min 2 min 0 W/m 10,5 km/h (2 Bft) 95,74 %
20.10.2016 02:20 6,9 C 6,7 C 5,6 C 96 % 15 lf 1013,4 hPa 0,0 l/m 0 min 2 min 0 W/m 8,4 km/h (2 Bft) 93,62 %
20.10.2016 02:22 6,9 C 6,7 C 5,6 C 96 % 15 lf 1013,4 hPa 0,2 l/m 0 min 2 min 0 W/m 6,3 km/h (2 Bft) 95,74 %
20.10.2016 02:24 6,9 C 6,7 C 5,6 C 96 % 15 lf 1013,4 hPa 0,0 l/m 0 min 2 min 0 W/m 6,3 km/h (2 Bft) 95,74 %
20.10.2016 02:26 6,9 C 6,7 C 5,6 C 96 % 15 lf 1013,5 hPa 0,0 l/m 0 min 2 min 0 W/m 8,4 km/h (2 Bft) 95,74 %
20.10.2016 02:28 6,9 C 6,7 C 5,6 C 96 % 15 lf 1013,4 hPa 0,0 l/m 0 min 2 min 0 W/m 6,3 km/h (2 Bft) 95,74 %
20.10.2016 02:30 6,9 C 6,7 C 5,6 C 96 % 15 lf 1013,4 hPa 0,0 l/m 0 min 2 min 0 W/m 8,4 km/h (2 Bft) 95,74 %
20.10.2016 02:32 6,9 C 6,7 C 5,6 C 96 % 15 lf 1013,4 hPa 0,2 l/m 0 min 2 min 0 W/m 10,5 km/h (2 Bft) 91,67 %
20.10.2016 02:34 7,0 C 6,7 C 5,6 C 96 % 15 lf 1013,4 hPa 0,0 l/m 0 min 2 min 0 W/m 10,5 km/h (2 Bft) 95,74 %
20.10.2016 02:36 7,0 C 6,7 C 5,6 C 96 % 15 lf 1013,3 hPa 0,0 l/m 0 min 2 min 0 W/m 8,4 km/h (2 Bft) 95,92 %
20.10.2016 02:38 7,0 C 6,7 C 5,6 C 96 % 15 lf 1013,3 hPa 0,2 l/m 0 min 2 min 0 W/m 6,3 km/h (2 Bft) 93,62 %
20.10.2016 02:40 7,0 C 6,7 C 5,6 C 96 % 15 lf 1013,3 hPa 0,0 l/m 0 min 2 min 0 W/m 4,2 km/h (1 Bft) 89,36 %
20.10.2016 02:42 7,0 C 6,7 C 5,6 C 96 % 15 lf 1013,3 hPa 0,2 l/m 0 min 2 min 0 W/m 6,3 km/h (2 Bft) 91,49 %
20.10.2016 02:44 7,0 C 6,7 C 5,6 C 96 % 15 lf 1013,4 hPa 0,0 l/m 0 min 2 min 0 W/m 8,4 km/h (2 Bft) 91,49 %
20.10.2016 02:46 7,0 C 6,7 C 5,6 C 96 % 15 lf 1013,3 hPa 0,2 l/m 0 min 2 min 0 W/m 6,3 km/h (2 Bft) 89,36 %
20.10.2016 02:48 7,0 C 6,7 C 5,6 C 96 % 15 lf 1013,3 hPa 0,0 l/m 0 min 2 min 0 W/m 10,5 km/h (2 Bft) 89,13 %
20.10.2016 02:50 7,0 C 6,7 C 5,6 C 96 % 15 lf 1013,2 hPa 0,2 l/m 0 min 2 min 0 W/m 10,5 km/h (2 Bft) 89,36 %
20.10.2016 02:52 7,0 C 6,7 C 5,6 C 96 % 15 lf 1013,0 hPa 0,0 l/m 0 min 2 min 0 W/m 10,5 km/h (2 Bft) 92,59 %
20.10.2016 02:54 7,0 C 6,7 C 5,6 C 96 % 15 lf 1013,0 hPa 0,0 l/m 0 min 2 min 0 W/m 14,6 km/h (3 Bft) 91,49 %
20.10.2016 02:56 7,0 C 6,7 C 5,6 C 96 % 15 lf 1012,9 hPa 0,2 l/m 0 min 2 min 0 W/m 8,4 km/h (2 Bft) 89,36 %
20.10.2016 02:58 7,0 C 6,7 C 5,6 C 96 % 15 lf 1012,9 hPa 0,0 l/m 0 min 2 min 0 W/m 10,5 km/h (2 Bft) 93,48 %
20.10.2016 03:00 7,0 C 6,7 C 6,1 C 96 % 15 lf 1012,8 hPa 0,2 l/m 0 min 2 min 0 W/m 8,4 km/h (2 Bft) 89,36 %
20.10.2016 03:02 7,0 C 6,7 C 6,1 C 96 % 15 lf 1012,8 hPa 0,0 l/m 0 min 2 min 0 W/m 10,5 km/h (2 Bft) 89,58 %
20.10.2016 03:04 7,1 C 7,2 C 6,1 C 96 % 15 lf 1012,7 hPa 0,0 l/m 0 min 2 min 0 W/m 12,6 km/h (3 Bft) 93,62 %
20.10.2016 03:06 7,1 C 7,2 C 6,1 C 96 % 15 lf 1012,6 hPa 0,2 l/m 0 min 2 min 0 W/m 12,6 km/h (3 Bft) 92,11 %
20.10.2016 03:08 7,1 C 7,2 C 6,1 C 96 % 15 lf 1012,6 hPa 0,2 l/m 0 min 2 min 0 W/m 8,4 km/h (2 Bft) 91,49 %
20.10.2016 03:10 7,1 C 7,2 C 6,1 C 96 % 15 lf 1012,5 hPa 0,2 l/m 0 min 2 min 0 W/m 6,3 km/h (2 Bft) 93,62 %
20.10.2016 03:12 7,1 C 7,2 C 6,1 C 96 % 15 lf 1012,6 hPa 0,2 l/m 0 min 2 min 0 W/m 10,5 km/h (2 Bft) 93,48 %
20.10.2016 03:14 7,1 C 7,2 C 6,1 C 96 % 15 lf 1012,6 hPa 0,2 l/m 0 min 2 min 0 W/m 12,6 km/h (3 Bft) 93,62 %
20.10.2016 03:16 7,1 C 7,2 C 6,1 C 96 % 15 lf 1012,5 hPa 0,0 l/m 0 min 2 min 0 W/m 10,5 km/h (2 Bft) 91,49 %
20.10.2016 03:18 7,1 C 7,2 C 6,1 C 96 % 15 lf 1012,5 hPa 0,4 l/m 0 min 2 min 0 W/m 8,4 km/h (2 Bft) 91,49 %
20.10.2016 03:20 7,1 C 7,2 C 6,1 C 96 % 15 lf 1012,4 hPa 0,0 l/m 0 min 2 min 0 W/m 14,6 km/h (3 Bft) 95,83 %
20.10.2016 03:22 7,2 C 7,2 C 6,1 C 96 % 15 lf 1012,4 hPa 0,0 l/m 0 min 2 min 0 W/m 14,6 km/h (3 Bft) 93,48 %
20.10.2016 03:24 7,2 C 7,2 C 6,1 C 96 % 15 lf 1012,3 hPa 0,2 l/m 0 min 2 min 0 W/m 14,6 km/h (3 Bft) 95,74 %
20.10.2016 03:26 7,2 C 7,2 C 6,1 C 96 % 15 lf 1012,2 hPa 0,0 l/m 0 min 2 min 0 W/m 12,6 km/h (3 Bft) 95,74 %
20.10.2016 03:28 7,2 C 7,2 C 6,1 C 97 % 15 lf 1012,2 hPa 0,2 l/m 0 min 2 min 0 W/m 16,7 km/h (3 Bft) 93,62 %
20.10.2016 03:30 7,2 C 7,2 C 6,1 C 97 % 15 lf 1012,3 hPa 0,0 l/m 0 min 2 min 0 W/m 10,5 km/h (2 Bft) 100,00 %
20.10.2016 03:32 7,2 C 7,2 C 6,1 C 97 % 15 lf 1012,2 hPa 0,2 l/m 0 min 2 min 0 W/m 16,7 km/h (3 Bft) 98,11 %
20.10.2016 03:34 7,3 C 7,2 C 6,1 C 97 % 15 lf 1012,3 hPa 0,0 l/m 0 min 2 min 0 W/m 12,6 km/h (3 Bft) 100,00 %
20.10.2016 03:36 7,3 C 7,2 C 6,1 C 97 % 15 lf 1012,2 hPa 0,2 l/m 0 min 2 min 0 W/m 12,6 km/h (3 Bft) 100,00 %
20.10.2016 03:38 7,3 C 7,2 C 6,1 C 97 % 15 lf 1012,2 hPa 0,4 l/m 0 min 2 min 0 W/m 10,5 km/h (2 Bft) 95,74 %
20.10.2016 03:40 7,3 C 7,2 C 6,1 C 97 % 15 lf 1012,3 hPa 0,2 l/m 0 min 2 min 0 W/m 14,6 km/h (3 Bft) 100,00 %
20.10.2016 03:42 7,3 C 7,2 C 6,1 C 97 % 15 lf 1012,3 hPa 0,0 l/m 0 min 2 min 0 W/m 14,6 km/h (3 Bft) 95,74 %
20.10.2016 03:44 7,3 C 7,2 C 6,1 C 97 % 15 lf 1012,3 hPa 0,2 l/m 0 min 2 min 0 W/m 12,6 km/h (3 Bft) 97,87 %
20.10.2016 03:46 7,3 C 7,2 C 6,1 C 97 % 15 lf 1012,4 hPa 0,0 l/m 0 min 2 min 0 W/m 20,9 km/h (4 Bft) 93,48 %
20.10.2016 03:48 7,3 C 7,2 C 6,1 C 97 % 15 lf 1012,5 hPa 0,2 l/m 0 min 2 min 0 W/m 18,8 km/h (3 Bft) 100,00 %
20.10.2016 03:50 7,3 C 7,2 C 6,1 C 97 % 15 lf 1012,5 hPa 0,2 l/m 0 min 2 min 0 W/m 25,1 km/h (4 Bft) 100,00 %
20.10.2016 03:52 7,3 C 7,2 C 6,1 C 97 % 15 lf 1012,5 hPa 0,4 l/m 0 min 2 min 0 W/m 20,9 km/h (4 Bft) 100,00 %
20.10.2016 03:54 7,3 C 7,2 C 6,1 C 97 % 15 lf 1012,4 hPa 0,6 l/m 0 min 2 min 0 W/m 27,2 km/h (4 Bft) 100,00 %
20.10.2016 03:56 7,3 C 7,2 C 6,1 C 97 % 15 lf 1012,3 hPa 0,6 l/m 0 min 2 min 0 W/m 16,7 km/h (3 Bft) 100,00 %
20.10.2016 03:58 7,3 C 7,2 C 6,1 C 97 % 15 lf 1012,3 hPa 0,4 l/m 0 min 2 min 0 W/m 16,7 km/h (3 Bft) 97,83 %
20.10.2016 04:00 7,3 C 7,2 C 6,1 C 97 % 15 lf 1012,3 hPa 0,2 l/m 0 min 2 min 0 W/m 16,7 km/h (3 Bft) 100,00 %
20.10.2016 04:02 7,3 C 7,2 C 6,1 C 97 % 15 lf 1012,2 hPa 0,2 l/m 0 min 2 min 0 W/m 10,5 km/h (2 Bft) 100,00 %
20.10.2016 04:04 7,3 C 7,2 C 6,1 C 97 % 15 lf 1012,2 hPa 0,2 l/m 0 min 2 min 0 W/m 16,7 km/h (3 Bft) 97,87 %
20.10.2016 04:06 7,3 C 7,2 C 6,1 C 97 % 15 lf 1012,1 hPa 0,2 l/m 0 min 2 min 0 W/m 14,6 km/h (3 Bft) 91,49 %
20.10.2016 04:08 7,4 C 7,2 C 6,1 C 97 % 15 lf 1012,0 hPa 0,2 l/m 0 min 2 min 0 W/m 10,5 km/h (2 Bft) 97,87 %
20.10.2016 04:10 7,4 C 7,2 C 6,1 C 97 % 15 lf 1012,1 hPa 0,2 l/m 0 min 2 min 0 W/m 10,5 km/h (2 Bft) 100,00 %
20.10.2016 04:12 7,4 C 7,2 C 6,1 C 97 % 15 lf 1012,0 hPa 0,0 l/m 0 min 2 min 0 W/m 8,4 km/h (2 Bft) 100,00 %
20.10.2016 04:14 7,4 C 7,2 C 6,1 C 97 % 15 lf 1012,1 hPa 0,2 l/m 0 min 2 min 0 W/m 8,4 km/h (2 Bft) 97,87 %
20.10.2016 04:16 7,4 C 7,2 C 6,1 C 97 % 15 lf 1012,2 hPa 0,0 l/m 0 min 2 min 0 W/m 8,4 km/h (2 Bft) 100,00 %
20.10.2016 04:18 7,4 C 7,2 C 6,1 C 97 % 15 lf 1012,1 hPa 0,0 l/m 0 min 2 min 0 W/m 10,5 km/h (2 Bft) 100,00 %
20.10.2016 04:20 7,4 C 7,2 C 6,1 C 97 % 15 lf 1012,1 hPa 0,4 l/m 0 min 2 min 0 W/m 6,3 km/h (2 Bft) 100,00 %
20.10.2016 04:22 7,4 C 7,2 C 6,1 C 97 % 15 lf 1012,0 hPa 0,2 l/m 0 min 2 min 0 W/m 8,4 km/h (2 Bft) 100,00 %
20.10.2016 04:24 7,4 C 7,2 C 6,1 C 97 % 15 lf 1011,9 hPa 0,4 l/m 0 min 2 min 0 W/m 8,4 km/h (2 Bft) 100,00 %
20.10.2016 04:26 7,4 C 7,2 C 6,1 C 97 % 15 lf 1011,9 hPa 0,0 l/m 0 min 2 min 0 W/m 8,4 km/h (2 Bft) 97,87 %
20.10.2016 04:28 7,4 C 7,2 C 6,1 C 97 % 15 lf 1011,9 hPa 0,0 l/m 0 min 2 min 0 W/m 8,4 km/h (2 Bft) 93,62 %
20.10.2016 04:30 7,4 C 7,2 C 6,1 C 97 % 15 lf 1011,9 hPa 0,2 l/m 0 min 2 min 0 W/m 8,4 km/h (2 Bft) 97,87 %
20.10.2016 04:32 7,4 C 7,2 C 6,1 C 97 % 15 lf 1011,9 hPa 0,2 l/m 0 min 2 min 0 W/m 6,3 km/h (2 Bft) 98,08 %
20.10.2016 04:34 7,4 C 7,2 C 6,1 C 97 % 15 lf 1011,9 hPa 0,2 l/m 0 min 2 min 0 W/m 6,3 km/h (2 Bft) 97,87 %
20.10.2016 04:36 7,4 C 7,2 C 6,1 C 97 % 15 lf 1011,8 hPa 0,0 l/m 0 min 2 min 0 W/m 10,5 km/h (2 Bft) 98,00 %
20.10.2016 04:38 7,4 C 7,2 C 6,1 C 97 % 15 lf 1011,8 hPa 0,0 l/m 0 min 2 min 0 W/m 8,4 km/h (2 Bft) 95,74 %
20.10.2016 04:40 7,4 C 7,2 C 6,1 C 97 % 15 lf 1011,8 hPa 0,0 l/m 0 min 2 min 0 W/m 4,2 km/h (1 Bft) 95,74 %
20.10.2016 04:42 7,4 C 7,2 C 6,1 C 97 % 15 lf 1011,8 hPa 0,2 l/m 0 min 2 min 0 W/m 4,2 km/h (1 Bft) 97,83 %
20.10.2016 04:44 7,4 C 7,2 C 6,1 C 97 % 15 lf 1011,8 hPa 0,0 l/m 0 min 2 min 0 W/m 6,3 km/h (2 Bft) 95,74 %
20.10.2016 04:46 7,4 C 7,2 C 6,1 C 97 % 15 lf 1011,8 hPa 0,0 l/m 0 min 2 min 0 W/m 6,3 km/h (2 Bft) 97,87 %
20.10.2016 04:48 7,4 C 7,2 C 6,1 C 97 % 15 lf 1011,6 hPa 0,2 l/m 0 min 2 min 0 W/m 6,3 km/h (2 Bft) 95,74 %
20.10.2016 04:50 7,4 C 7,2 C 6,1 C 97 % 15 lf 1011,7 hPa 0,0 l/m 0 min 2 min 0 W/m 4,2 km/h (1 Bft) 93,62 %
20.10.2016 04:52 7,4 C 7,2 C 6,1 C 97 % 15 lf 1011,6 hPa 0,0 l/m 0 min 0 min 0 W/m 4,2 km/h (1 Bft) 97,22 %
20.10.2016 04:54 7,4 C 7,2 C 6,1 C 97 % 15 lf 1011,7 hPa 0,0 l/m 0 min 0 min 0 W/m 4,2 km/h (1 Bft) 93,62 %
20.10.2016 04:56 7,4 C 7,2 C 6,1 C 97 % 15 lf 1011,7 hPa 0,0 l/m 0 min 0 min 0 W/m 0,0 km/h (0 Bft) 95,65 %
20.10.2016 04:58 7,4 C 7,2 C 6,1 C 97 % 15 lf 1011,6 hPa 0,0 l/m 0 min 0 min 0 W/m 0,0 km/h (0 Bft) 93,62 %
20.10.2016 05:00 7,4 C 7,2 C 6,1 C 97 % 15 lf 1011,6 hPa 0,0 l/m 0 min 0 min 0 W/m 0,0 km/h (0 Bft) 93,62 %
20.10.2016 05:02 7,4 C 7,2 C 6,1 C 97 % 15 lf 1011,6 hPa 0,0 l/m 0 min 0 min 0 W/m 0,0 km/h (0 Bft) 89,58 %
20.10.2016 05:04 7,4 C 7,2 C 6,1 C 97 % 15 lf 1011,6 hPa 0,0 l/m 0 min 0 min 0 W/m 0,0 km/h (0 Bft) 93,62 %
20.10.2016 05:06 7,4 C 7,2 C 6,1 C 97 % 15 lf 1011,6 hPa 0,0 l/m 0 min 0 min 0 W/m 0,0 km/h (0 Bft) 95,83 %
20.10.2016 05:08 7,4 C 7,2 C 6,1 C 97 % 15 lf 1011,6 hPa 0,0 l/m 0 min 2 min 0 W/m 2,1 km/h (1 Bft) 97,83 %
20.10.2016 05:10 7,4 C 7,2 C 6,1 C 97 % 15 lf 1011,6 hPa 0,0 l/m 0 min 0 min 0 W/m 2,1 km/h (1 Bft) 97,87 %
20.10.2016 05:12 7,4 C 7,2 C 6,1 C 97 % 15 lf 1011,5 hPa 0,0 l/m 0 min 2 min 0 W/m 2,1 km/h (1 Bft) 98,11 %
20.10.2016 05:14 7,4 C 7,2 C 6,1 C 97 % 15 lf 1011,5 hPa 0,0 l/m 0 min 0 min 0 W/m 2,1 km/h (1 Bft) 97,87 %
20.10.2016 05:16 7,4 C 7,2 C 6,1 C 97 % 15 lf 1011,5 hPa 0,0 l/m 0 min 0 min 0 W/m 2,1 km/h (1 Bft) 97,87 %
20.10.2016 05:18 7,4 C 7,2 C 6,1 C 97 % 15 lf 1011,5 hPa 0,2 l/m 0 min 0 min 0 W/m 0,0 km/h (0 Bft) 97,83 %
20.10.2016 05:20 7,4 C 7,2 C 6,1 C 97 % 15 lf 1011,5 hPa 0,0 l/m 0 min 0 min 0 W/m 2,1 km/h (1 Bft) 97,87 %
20.10.2016 05:22 7,4 C 7,2 C 6,1 C 97 % 15 lf 1011,5 hPa 0,0 l/m 0 min 2 min 0 W/m 2,1 km/h (1 Bft) 93,75 %
20.10.2016 05:24 7,4 C 7,2 C 6,1 C 97 % 15 lf 1011,4 hPa 0,0 l/m 0 min 2 min 0 W/m 2,1 km/h (1 Bft) 97,87 %
20.10.2016 05:26 7,4 C 7,2 C 6,1 C 97 % 15 lf 1011,4 hPa 0,0 l/m 0 min 2 min 0 W/m 4,2 km/h (1 Bft) 100,00 %
20.10.2016 05:28 7,4 C 7,2 C 6,1 C 97 % 15 lf 1011,4 hPa 0,0 l/m 0 min 0 min 0 W/m 2,1 km/h (1 Bft) 95,65 %
20.10.2016 05:30 7,4 C 7,2 C 6,1 C 97 % 15 lf 1011,4 hPa 0,0 l/m 0 min 0 min 0 W/m 2,1 km/h (1 Bft) 91,49 %
20.10.2016 05:32 7,4 C 7,2 C 6,1 C 97 % 15 lf 1011,4 hPa 0,0 l/m 0 min 0 min 0 W/m 0,0 km/h (0 Bft) 97,30 %
20.10.2016 05:34 7,4 C 7,2 C 6,1 C 97 % 15 lf 1011,4 hPa 0,0 l/m 0 min 0 min 0 W/m 2,1 km/h (1 Bft) 97,87 %
20.10.2016 05:36 7,4 C 7,2 C 6,1 C 97 % 15 lf 1011,4 hPa 0,0 l/m 0 min 0 min 0 W/m 2,1 km/h (1 Bft) 96,00 %
20.10.2016 05:38 7,4 C 7,2 C 6,1 C 97 % 15 lf 1011,3 hPa 0,0 l/m 0 min 0 min 0 W/m 0,0 km/h (0 Bft) 97,87 %
20.10.2016 05:40 7,4 C 7,2 C 6,1 C 97 % 15 lf 1011,4 hPa 0,0 l/m 0 min 0 min 0 W/m 0,0 km/h (0 Bft) 95,74 %
20.10.2016 05:42 7,4 C 7,2 C 6,1 C 97 % 15 lf 1011,3 hPa 0,0 l/m 0 min 0 min 0 W/m 0,0 km/h (0 Bft) 95,65 %
20.10.2016 05:44 7,4 C 7,2 C 6,1 C 97 % 15 lf 1011,4 hPa 0,0 l/m 0 min 0 min 0 W/m 2,1 km/h (1 Bft) 97,87 %
20.10.2016 05:46 7,4 C 7,2 C 6,1 C 97 % 15 lf 1011,4 hPa 0,0 l/m 0 min 0 min 0 W/m 2,1 km/h (1 Bft) 97,87 %
20.10.2016 05:48 7,4 C 7,2 C 6,1 C 97 % 15 lf 1011,4 hPa 0,0 l/m 0 min 0 min 0 W/m 0,0 km/h (0 Bft) 93,62 %
20.10.2016 05:50 7,4 C 7,2 C 6,1 C 97 % 15 lf 1011,4 hPa 0,0 l/m 0 min 0 min 0 W/m 0,0 km/h (0 Bft) 97,87 %
20.10.2016 05:52 7,4 C 7,2 C 6,1 C 97 % 15 lf 1011,4 hPa 0,0 l/m 0 min 0 min 0 W/m 0,0 km/h (0 Bft) 93,62 %
20.10.2016 05:54 7,4 C 7,2 C 6,1 C 97 % 15 lf 1011,4 hPa 0,0 l/m 0 min 0 min 0 W/m 0,0 km/h (0 Bft) 95,74 %
20.10.2016 05:56 7,4 C 7,2 C 6,7 C 97 % 15 lf 1011,4 hPa 0,0 l/m 0 min 0 min 0 W/m 0,0 km/h (0 Bft) 93,48 %
20.10.2016 05:58 7,4 C 7,2 C 6,7 C 97 % 15 lf 1011,4 hPa 0,0 l/m 0 min 0 min 0 W/m 2,1 km/h (1 Bft) 95,74 %
20.10.2016 06:00 7,4 C 7,2 C 6,7 C 97 % 15 lf 1011,4 hPa 0,0 l/m 0 min 0 min 0 W/m 2,1 km/h (1 Bft) 95,74 %
20.10.2016 06:02 7,4 C 7,2 C 6,7 C 98 % 15 lf 1011,4 hPa 0,0 l/m 0 min 0 min 0 W/m 0,0 km/h (0 Bft) 97,87 %
20.10.2016 06:06 7,4 C 7,2 C 6,7 C 98 % 15 lf 1011,4 hPa 0,0 l/m 0 min 0 min 0 W/m 0,0 km/h (0 Bft) 95,70 %
20.10.2016 06:08 7,4 C 7,2 C 6,7 C 98 % 15 lf 1011,5 hPa 0,0 l/m 0 min 0 min 0 W/m 0,0 km/h (0 Bft) 97,87 %
20.10.2016 06:10 7,4 C 7,2 C 6,7 C 98 % 15 lf 1011,4 hPa 0,0 l/m 0 min 0 min 0 W/m 4,2 km/h (1 Bft) 91,49 %
20.10.2016 06:12 7,4 C 7,2 C 6,7 C 98 % 15 lf 1011,4 hPa 0,0 l/m 0 min 0 min 0 W/m 4,2 km/h (1 Bft) 97,87 %
20.10.2016 06:14 7,4 C 7,2 C 6,7 C 98 % 15 lf 1011,5 hPa 0,0 l/m 0 min 0 min 0 W/m 4,2 km/h (1 Bft) 97,87 %
20.10.2016 06:16 7,4 C 7,8 C 6,7 C 98 % 15 lf 1011,5 hPa 0,0 l/m 0 min 0 min 0 W/m 2,1 km/h (1 Bft) 89,36 %
20.10.2016 06:18 7,4 C 7,8 C 6,7 C 98 % 15 lf 1011,5 hPa 0,0 l/m 0 min 0 min 0 W/m 0,0 km/h (0 Bft) 95,65 %
20.10.2016 06:20 7,4 C 7,8 C 6,7 C 98 % 15 lf 1011,5 hPa 0,0 l/m 0 min 0 min 0 W/m 0,0 km/h (0 Bft) 95,74 %
20.10.2016 06:22 7,4 C 7,8 C 6,7 C 98 % 15 lf 1011,6 hPa 0,0 l/m 0 min 0 min 0 W/m 0,0 km/h (0 Bft) 93,62 %
20.10.2016 06:24 7,5 C 7,8 C 6,7 C 98 % 15 lf 1011,5 hPa 0,0 l/m 0 min 0 min 0 W/m 0,0 km/h (0 Bft) 93,62 %
20.10.2016 06:26 7,5 C 7,2 C 6,7 C 98 % 15 lf 1011,6 hPa 0,0 l/m 0 min 0 min 0 W/m 0,0 km/h (0 Bft) 91,49 %
20.10.2016 06:28 7,5 C 7,2 C 6,7 C 98 % 15 lf 1011,6 hPa 0,0 l/m 0 min 0 min 0 W/m 0,0 km/h (0 Bft) 93,62 %
20.10.2016 06:30 7,5 C 7,2 C 6,7 C 98 % 15 lf 1011,6 hPa 0,0 l/m 0 min 0 min 0 W/m 2,1 km/h (1 Bft) 89,13 %
20.10.2016 06:32 7,5 C 7,2 C 6,7 C 98 % 15 lf 1011,6 hPa 0,0 l/m 0 min 0 min 0 W/m 6,3 km/h (2 Bft) 96,23 %
20.10.2016 06:34 7,5 C 7,2 C 6,7 C 98 % 15 lf 1011,6 hPa 0,0 l/m 0 min 0 min 0 W/m 6,3 km/h (2 Bft) 93,62 %
20.10.2016 06:36 7,5 C 7,2 C 6,7 C 98 % 15 lf 1011,6 hPa 0,0 l/m 0 min 0 min 0 W/m 4,2 km/h (1 Bft) 94,00 %
20.10.2016 06:38 7,5 C 7,2 C 6,7 C 98 % 15 lf 1011,6 hPa 0,0 l/m 0 min 0 min 0 W/m 2,1 km/h (1 Bft) 93,48 %
20.10.2016 06:40 7,5 C 7,2 C 6,7 C 98 % 15 lf 1011,7 hPa 0,0 l/m 0 min 0 min 0 W/m 2,1 km/h (1 Bft) 95,74 %
20.10.2016 06:42 7,5 C 7,2 C 6,7 C 98 % 15 lf 1011,6 hPa 0,0 l/m 0 min 0 min 0 W/m 4,2 km/h (1 Bft) 94,29 %
20.10.2016 06:44 7,5 C 7,8 C 6,7 C 98 % 15 lf 1011,7 hPa 0,0 l/m 0 min 0 min 0 W/m 4,2 km/h (1 Bft) 95,74 %
20.10.2016 06:46 7,6 C 7,8 C 6,7 C 98 % 15 lf 1011,7 hPa 0,0 l/m 0 min 0 min 0 W/m 4,2 km/h (1 Bft) 96,61 %
20.10.2016 06:48 7,6 C 7,8 C 6,7 C 98 % 15 lf 1011,7 hPa 0,0 l/m 0 min 0 min 0 W/m 4,2 km/h (1 Bft) 93,62 %
20.10.2016 06:50 7,6 C 7,8 C 6,7 C 98 % 15 lf 1011,7 hPa 0,0 l/m 0 min 0 min 0 W/m 4,2 km/h (1 Bft) 95,65 %
20.10.2016 06:52 7,6 C 7,8 C 6,7 C 98 % 15 lf 1011,7 hPa 0,0 l/m 0 min 0 min 0 W/m 6,3 km/h (2 Bft) 95,74 %
20.10.2016 06:54 7,6 C 7,8 C 6,7 C 98 % 15 lf 1011,7 hPa 0,0 l/m 0 min 0 min 0 W/m 6,3 km/h (2 Bft) 95,74 %
20.10.2016 06:56 7,6 C 7,8 C 6,7 C 98 % 15 lf 1011,7 hPa 0,0 l/m 0 min 0 min 0 W/m 6,3 km/h (2 Bft) 91,49 %
20.10.2016 06:58 7,6 C 7,2 C 6,7 C 98 % 15 lf 1011,7 hPa 0,0 l/m 0 min 0 min 0 W/m 6,3 km/h (2 Bft) 100,00 %
20.10.2016 07:00 7,6 C 7,2 C 6,7 C 98 % 15 lf 1011,7 hPa 0,0 l/m 0 min 0 min 0 W/m 6,3 km/h (2 Bft) 96,61 %
20.10.2016 07:02 7,6 C 7,2 C 6,7 C 98 % 15 lf 1011,7 hPa 0,0 l/m 0 min 0 min 0 W/m 6,3 km/h (2 Bft) 97,22 %
20.10.2016 07:04 7,6 C 7,2 C 6,7 C 98 % 15 lf 1011,8 hPa 0,0 l/m 0 min 0 min 0 W/m 2,1 km/h (1 Bft) 97,83 %
20.10.2016 07:06 7,6 C 7,2 C 6,7 C 98 % 15 lf 1011,7 hPa 0,0 l/m 0 min 0 min 0 W/m 6,3 km/h (2 Bft) 95,92 %
20.10.2016 07:08 7,6 C 7,2 C 6,7 C 98 % 15 lf 1011,7 hPa 0,0 l/m 0 min 0 min 0 W/m 6,3 km/h (2 Bft) 97,87 %
20.10.2016 07:10 7,6 C 7,2 C 6,7 C 98 % 15 lf 1011,7 hPa 0,0 l/m 0 min 0 min 0 W/m 6,3 km/h (2 Bft) 93,62 %
20.10.2016 07:12 7,6 C 7,2 C 6,7 C 98 % 15 lf 1011,7 hPa 0,0 l/m 0 min 0 min 0 W/m 4,2 km/h (1 Bft) 93,62 %
20.10.2016 07:14 7,6 C 7,2 C 6,7 C 98 % 15 lf 1011,7 hPa 0,0 l/m 0 min 0 min 0 W/m 6,3 km/h (2 Bft) 95,74 %
20.10.2016 07:16 7,6 C 7,8 C 6,7 C 98 % 15 lf 1011,6 hPa 0,0 l/m 0 min 0 min 0 W/m 6,3 km/h (2 Bft) 95,65 %
20.10.2016 07:18 7,6 C 7,8 C 6,7 C 98 % 15 lf 1011,6 hPa 0,0 l/m 0 min 0 min 0 W/m 4,2 km/h (1 Bft) 95,74 %
20.10.2016 07:20 7,6 C 7,8 C 6,7 C 98 % 15 lf 1011,7 hPa 0,0 l/m 0 min 0 min 0 W/m 6,3 km/h (2 Bft) 97,87 %
20.10.2016 07:22 7,6 C 7,8 C 6,7 C 98 % 15 lf 1011,7 hPa 0,0 l/m 0 min 0 min 0 W/m 6,3 km/h (2 Bft) 97,87 %
20.10.2016 07:24 7,6 C 7,2 C 6,7 C 98 % 15 lf 1011,7 hPa 0,0 l/m 0 min 0 min 0 W/m 8,4 km/h (2 Bft) 97,87 %
20.10.2016 07:26 7,6 C 7,2 C 6,7 C 98 % 15 lf 1011,8 hPa 0,0 l/m 0 min 0 min 0 W/m 8,4 km/h (2 Bft) 93,62 %
20.10.2016 07:28 7,6 C 7,2 C 6,7 C 98 % 15 lf 1011,8 hPa 0,0 l/m 0 min 0 min 0 W/m 6,3 km/h (2 Bft) 93,48 %
20.10.2016 07:30 7,6 C 7,2 C 6,7 C 98 % 15 lf 1011,8 hPa 0,0 l/m 0 min 0 min 0 W/m 4,2 km/h (1 Bft) 95,74 %
20.10.2016 07:32 7,6 C 7,2 C 6,7 C 98 % 15 lf 1011,8 hPa 0,0 l/m 0 min 0 min 0 W/m 6,3 km/h (2 Bft) 97,87 %
20.10.2016 07:34 7,6 C 7,2 C 6,7 C 98 % 15 lf 1011,8 hPa 0,0 l/m 0 min 0 min 0 W/m 4,2 km/h (1 Bft) 97,87 %
20.10.2016 07:36 7,6 C 7,2 C 6,7 C 98 % 15 lf 1011,8 hPa 0,0 l/m 0 min 0 min 0 W/m 6,3 km/h (2 Bft) 96,30 %
20.10.2016 07:38 7,6 C 7,2 C 6,7 C 98 % 15 lf 1011,8 hPa 0,0 l/m 0 min 0 min 0 W/m 6,3 km/h (2 Bft) 93,62 %
20.10.2016 07:40 7,6 C 7,2 C 6,1 C 98 % 15 lf 1012,0 hPa 0,0 l/m 0 min 0 min 0 W/m 6,3 km/h (2 Bft) 93,62 %
20.10.2016 07:42 7,6 C 7,2 C 6,1 C 98 % 15 lf 1012,0 hPa 0,0 l/m 0 min 0 min 0 W/m 6,3 km/h (2 Bft) 95,74 %
20.10.2016 07:44 7,6 C 7,2 C 6,1 C 98 % 15 lf 1012,0 hPa 0,0 l/m 0 min 0 min 0 W/m 6,3 km/h (2 Bft) 95,74 %
20.10.2016 07:46 7,6 C 7,2 C 6,1 C 98 % 15 lf 1012,0 hPa 0,0 l/m 0 min 0 min 0 W/m 6,3 km/h (2 Bft) 97,87 %
20.10.2016 07:48 7,6 C 7,2 C 5,6 C 98 % 15 lf 1012,0 hPa 0,0 l/m 0 min 0 min 0 W/m 8,4 km/h (2 Bft) 95,65 %
20.10.2016 07:50 7,6 C 7,2 C 5,6 C 98 % 15 lf 1012,0 hPa 0,0 l/m 0 min 0 min 0 W/m 8,4 km/h (2 Bft) 95,74 %
20.10.2016 07:52 7,6 C 7,2 C 5,6 C 98 % 15 lf 1012,0 hPa 0,0 l/m 0 min 0 min 0 W/m 6,3 km/h (2 Bft) 95,74 %
20.10.2016 07:54 7,5 C 7,2 C 5,6 C 98 % 15 lf 1012,0 hPa 0,0 l/m 0 min 0 min 0 W/m 8,4 km/h (2 Bft) 95,74 %
20.10.2016 07:56 7,5 C 6,7 C 5,6 C 98 % 15 lf 1012,0 hPa 0,0 l/m 0 min 0 min 0 W/m 8,4 km/h (2 Bft) 95,74 %
20.10.2016 07:58 7,5 C 6,7 C 5,6 C 98 % 15 lf 1012,1 hPa 0,0 l/m 0 min 0 min 0 W/m 10,5 km/h (2 Bft) 97,87 %
20.10.2016 08:00 7,4 C 6,7 C 5,6 C 98 % 15 lf 1012,0 hPa 0,0 l/m 0 min 0 min 0 W/m 6,3 km/h (2 Bft) 97,83 %
20.10.2016 08:02 7,4 C 6,7 C 5,6 C 98 % 15 lf 1012,1 hPa 0,0 l/m 0 min 0 min 0 W/m 6,3 km/h (2 Bft) 95,83 %
20.10.2016 08:04 7,4 C 6,7 C 5,6 C 98 % 15 lf 1012,1 hPa 0,0 l/m 0 min 0 min 0 W/m 6,3 km/h (2 Bft) 97,87 %
20.10.2016 08:06 7,4 C 7,2 C 5,6 C 98 % 15 lf 1012,1 hPa 0,0 l/m 0 min 0 min 0 W/m 4,2 km/h (1 Bft) 97,37 %
20.10.2016 08:08 7,4 C 6,7 C 5,6 C 98 % 15 lf 1012,1 hPa 0,0 l/m 0 min 0 min 0 W/m 6,3 km/h (2 Bft) 93,62 %
20.10.2016 08:10 7,4 C 6,7 C 5,6 C 98 % 15 lf 1012,1 hPa 0,0 l/m 0 min 0 min 0 W/m 6,3 km/h (2 Bft) 97,87 %
20.10.2016 08:12 7,4 C 6,7 C 5,6 C 98 % 15 lf 1012,1 hPa 0,0 l/m 0 min 0 min 3 W/m 6,3 km/h (2 Bft) 93,62 %
20.10.2016 08:14 7,4 C 6,7 C 5,6 C 98 % 15 lf 1012,2 hPa 0,0 l/m 0 min 0 min 5 W/m 4,2 km/h (1 Bft) 95,65 %
20.10.2016 08:16 7,4 C 6,7 C 5,6 C 98 % 15 lf 1012,2 hPa 0,0 l/m 0 min 0 min 5 W/m 4,2 km/h (1 Bft) 100,00 %
20.10.2016 08:18 7,3 C 6,7 C 5,6 C 98 % 15 lf 1012,2 hPa 0,0 l/m 0 min 0 min 5 W/m 4,2 km/h (1 Bft) 100,00 %
20.10.2016 08:20 7,3 C 7,2 C 5,6 C 98 % 15 lf 1012,2 hPa 0,0 l/m 0 min 0 min 7 W/m 6,3 km/h (2 Bft) 95,74 %
20.10.2016 08:22 7,3 C 7,2 C 5,6 C 98 % 15 lf 1012,2 hPa 0,0 l/m 0 min 0 min 11 W/m 6,3 km/h (2 Bft) 93,62 %
20.10.2016 08:24 7,3 C 7,2 C 5,6 C 98 % 15 lf 1012,2 hPa 0,0 l/m 0 min 0 min 10 W/m 4,2 km/h (1 Bft) 95,74 %
20.10.2016 08:26 7,3 C 7,2 C 5,6 C 98 % 15 lf 1012,3 hPa 0,0 l/m 0 min 0 min 9 W/m 0,0 km/h (0 Bft) 95,65 %
20.10.2016 08:28 7,3 C 7,2 C 5,6 C 98 % 15 lf 1012,3 hPa 0,0 l/m 0 min 0 min 10 W/m 4,2 km/h (1 Bft) 95,74 %
20.10.2016 08:30 7,3 C 7,2 C 5,6 C 98 % 15 lf 1012,3 hPa 0,0 l/m 0 min 0 min 12 W/m 6,3 km/h (2 Bft) 97,87 %
20.10.2016 08:32 7,3 C 7,2 C 6,1 C 98 % 15 lf 1012,3 hPa 0,0 l/m 0 min 0 min 14 W/m 4,2 km/h (1 Bft) 97,87 %
20.10.2016 08:34 7,3 C 7,2 C 6,1 C 98 % 15 lf 1012,3 hPa 0,0 l/m 0 min 0 min 14 W/m 0,0 km/h (0 Bft) 97,87 %
20.10.2016 08:36 7,2 C 7,2 C 6,1 C 98 % 15 lf 1012,3 hPa 0,0 l/m 0 min 0 min 16 W/m 6,3 km/h (2 Bft) 92,59 %
20.10.2016 08:38 7,2 C 7,2 C 6,1 C 98 % 15 lf 1012,3 hPa 0,0 l/m 0 min 0 min 16 W/m 4,2 km/h (1 Bft) 91,49 %
20.10.2016 08:40 7,2 C 7,2 C 6,1 C 98 % 15 lf 1012,3 hPa 0,0 l/m 0 min 0 min 16 W/m 4,2 km/h (1 Bft) 95,83 %
20.10.2016 08:42 7,2 C 7,2 C 6,1 C 98 % 15 lf 1012,3 hPa 0,0 l/m 0 min 0 min 16 W/m 4,2 km/h (1 Bft) 93,62 %
20.10.2016 08:44 7,2 C 7,2 C 6,1 C 98 % 15 lf 1012,3 hPa 0,0 l/m 0 min 0 min 16 W/m 4,2 km/h (1 Bft) 95,74 %
20.10.2016 08:46 7,2 C 7,2 C 6,1 C 98 % 15 lf 1012,3 hPa 0,0 l/m 0 min 0 min 16 W/m 2,1 km/h (1 Bft) 95,65 %
20.10.2016 08:48 7,2 C 7,2 C 6,1 C 98 % 15 lf 1012,3 hPa 0,0 l/m 0 min 0 min 16 W/m 6,3 km/h (2 Bft) 91,49 %
20.10.2016 08:50 7,2 C 7,2 C 6,1 C 98 % 15 lf 1012,3 hPa 0,0 l/m 0 min 0 min 16 W/m 4,2 km/h (1 Bft) 95,74 %
20.10.2016 08:52 7,2 C 7,2 C 6,1 C 98 % 15 lf 1012,3 hPa 0,0 l/m 0 min 0 min 17 W/m 4,2 km/h (1 Bft) 95,74 %
20.10.2016 08:54 7,2 C 7,2 C 6,1 C 98 % 15 lf 1012,4 hPa 0,0 l/m 0 min 0 min 19 W/m 4,2 km/h (1 Bft) 97,87 %
20.10.2016 08:56 7,2 C 7,2 C 6,1 C 98 % 15 lf 1012,4 hPa 0,0 l/m 0 min 0 min 21 W/m 6,3 km/h (2 Bft) 97,87 %
20.10.2016 08:58 7,2 C 7,2 C 6,1 C 98 % 15 lf 1012,5 hPa 0,0 l/m 0 min 0 min 22 W/m 6,3 km/h (2 Bft) 95,65 %
20.10.2016 09:00 7,2 C 7,2 C 6,7 C 98 % 15 lf 1012,5 hPa 0,0 l/m 0 min 0 min 24 W/m 8,4 km/h (2 Bft) 94,44 %
20.10.2016 09:02 7,3 C 7,2 C 6,7 C 98 % 15 lf 1012,5 hPa 0,0 l/m 0 min 0 min 26 W/m 6,3 km/h (2 Bft) 98,25 %
20.10.2016 09:04 7,3 C 7,2 C 6,7 C 98 % 15 lf 1012,5 hPa 0,0 l/m 0 min 2 min 29 W/m 4,2 km/h (1 Bft) 93,62 %
20.10.2016 09:06 7,3 C 7,8 C 6,7 C 98 % 15 lf 1012,5 hPa 0,0 l/m 0 min 2 min 33 W/m 6,3 km/h (2 Bft) 95,65 %
20.10.2016 09:08 7,3 C 7,8 C 6,7 C 98 % 15 lf 1012,5 hPa 0,0 l/m 0 min 2 min 33 W/m 4,2 km/h (1 Bft) 95,74 %
20.10.2016 09:10 7,3 C 7,8 C 6,7 C 98 % 15 lf 1012,5 hPa 0,0 l/m 0 min 2 min 33 W/m 4,2 km/h (1 Bft) 97,83 %
20.10.2016 09:12 7,3 C 7,8 C 6,7 C 98 % 15 lf 1012,5 hPa 0,0 l/m 0 min 2 min 35 W/m 6,3 km/h (2 Bft) 92,31 %
20.10.2016 09:14 7,4 C 7,8 C 6,7 C 98 % 15 lf 1012,5 hPa 0,0 l/m 0 min 2 min 34 W/m 6,3 km/h (2 Bft) 97,83 %
20.10.2016 09:16 7,4 C 7,8 C 6,7 C 98 % 15 lf 1012,5 hPa 0,0 l/m 0 min 2 min 33 W/m 6,3 km/h (2 Bft) 95,74 %
20.10.2016 09:18 7,4 C 7,8 C 6,7 C 98 % 15 lf 1012,5 hPa 0,2 l/m 0 min 2 min 37 W/m 8,4 km/h (2 Bft) 95,74 %
20.10.2016 09:20 7,4 C 7,8 C 6,7 C 98 % 15 lf 1012,5 hPa 0,0 l/m 0 min 2 min 40 W/m 6,3 km/h (2 Bft) 97,87 %
20.10.2016 09:22 7,4 C 7,8 C 6,7 C 98 % 15 lf 1012,6 hPa 0,0 l/m 0 min 2 min 38 W/m 6,3 km/h (2 Bft) 97,87 %
20.10.2016 09:24 7,4 C 7,8 C 6,7 C 98 % 15 lf 1012,5 hPa 0,0 l/m 0 min 2 min 39 W/m 6,3 km/h (2 Bft) 97,87 %
20.10.2016 09:26 7,4 C 7,8 C 6,7 C 98 % 15 lf 1012,6 hPa 0,0 l/m 0 min 2 min 34 W/m 12,6 km/h (3 Bft) 100,00 %
20.10.2016 09:28 7,4 C 7,8 C 6,7 C 98 % 15 lf 1012,5 hPa 0,0 l/m 0 min 2 min 34 W/m 10,5 km/h (2 Bft) 95,74 %
20.10.2016 09:30 7,5 C 7,8 C 6,7 C 98 % 15 lf 1012,6 hPa 0,0 l/m 0 min 2 min 36 W/m 8,4 km/h (2 Bft) 100,00 %
20.10.2016 09:32 7,5 C 7,8 C 6,7 C 98 % 15 lf 1012,6 hPa 0,0 l/m 0 min 2 min 41 W/m 6,3 km/h (2 Bft) 96,30 %
20.10.2016 09:34 7,5 C 7,8 C 6,7 C 98 % 15 lf 1012,5 hPa 0,0 l/m 0 min 2 min 44 W/m 8,4 km/h (2 Bft) 100,00 %
20.10.2016 09:36 7,6 C 7,8 C 6,7 C 98 % 15 lf 1012,6 hPa 0,0 l/m 0 min 2 min 44 W/m 10,5 km/h (2 Bft) 97,44 %
20.10.2016 09:38 7,6 C 7,8 C 6,7 C 98 % 15 lf 1012,6 hPa 0,0 l/m 0 min 2 min 45 W/m 8,4 km/h (2 Bft) 100,00 %
20.10.2016 09:40 7,6 C 7,8 C 6,7 C 98 % 15 lf 1012,6 hPa 0,0 l/m 0 min 2 min 42 W/m 6,3 km/h (2 Bft) 100,00 %
20.10.2016 09:42 7,6 C 7,8 C 6,7 C 98 % 15 lf 1012,6 hPa 0,0 l/m 0 min 2 min 40 W/m 6,3 km/h (2 Bft) 97,96 %
20.10.2016 09:44 7,6 C 7,8 C 6,7 C 98 % 15 lf 1012,6 hPa 0,2 l/m 0 min 2 min 35 W/m 8,4 km/h (2 Bft) 100,00 %
20.10.2016 09:46 7,6 C 7,8 C 6,7 C 98 % 15 lf 1012,6 hPa 0,0 l/m 0 min 2 min 32 W/m 8,4 km/h (2 Bft) 97,87 %
20.10.2016 09:48 7,6 C 7,8 C 6,7 C 98 % 15 lf 1012,7 hPa 0,0 l/m 0 min 2 min 35 W/m 8,4 km/h (2 Bft) 100,00 %
20.10.2016 09:50 7,6 C 7,8 C 6,7 C 98 % 15 lf 1012,6 hPa 0,0 l/m 0 min 2 min 36 W/m 6,3 km/h (2 Bft) 95,74 %
20.10.2016 09:52 7,6 C 7,8 C 6,7 C 98 % 15 lf 1012,7 hPa 0,0 l/m 0 min 2 min 39 W/m 6,3 km/h (2 Bft) 100,00 %
20.10.2016 09:54 7,6 C 7,8 C 6,7 C 98 % 15 lf 1012,7 hPa 0,0 l/m 0 min 2 min 43 W/m 8,4 km/h (2 Bft) 97,87 %
20.10.2016 09:56 7,6 C 7,8 C 6,7 C 98 % 15 lf 1012,6 hPa 0,0 l/m 0 min 2 min 41 W/m 6,3 km/h (2 Bft) 100,00 %
20.10.2016 09:58 7,6 C 7,8 C 6,7 C 98 % 15 lf 1012,7 hPa 0,0 l/m 0 min 2 min 40 W/m 6,3 km/h (2 Bft) 100,00 %
20.10.2016 10:00 7,6 C 7,8 C 6,7 C 98 % 15 lf 1012,7 hPa 0,0 l/m 0 min 2 min 37 W/m 6,3 km/h (2 Bft) 95,65 %
20.10.2016 10:02 7,6 C 7,8 C 6,7 C 98 % 15 lf 1012,7 hPa 0,0 l/m 0 min 2 min 31 W/m 8,4 km/h (2 Bft) 93,62 %
20.10.2016 10:04 7,6 C 7,8 C 6,7 C 98 % 15 lf 1012,8 hPa 0,2 l/m 0 min 2 min 29 W/m 4,2 km/h (1 Bft) 97,87 %
20.10.2016 10:06 7,6 C 7,8 C 6,7 C 98 % 15 lf 1012,7 hPa 0,0 l/m 0 min 2 min 36 W/m 6,3 km/h (2 Bft) 97,87 %
20.10.2016 10:08 7,6 C 7,8 C 6,7 C 98 % 15 lf 1012,7 hPa 0,0 l/m 0 min 2 min 40 W/m 6,3 km/h (2 Bft) 97,87 %
20.10.2016 10:10 7,6 C 7,8 C 6,7 C 98 % 15 lf 1012,7 hPa 0,0 l/m 0 min 2 min 45 W/m 8,4 km/h (2 Bft) 95,74 %
20.10.2016 10:12 7,6 C 7,8 C 6,7 C 98 % 15 lf 1012,7 hPa 0,0 l/m 0 min 2 min 47 W/m 4,2 km/h (1 Bft) 94,34 %
20.10.2016 10:14 7,6 C 7,8 C 6,7 C 98 % 15 lf 1012,7 hPa 0,0 l/m 0 min 2 min 49 W/m 10,5 km/h (2 Bft) 93,62 %
20.10.2016 10:16 7,6 C 7,8 C 6,7 C 98 % 15 lf 1012,7 hPa 0,0 l/m 0 min 2 min 50 W/m 6,3 km/h (2 Bft) 95,74 %
20.10.2016 10:18 7,6 C 7,8 C 7,2 C 98 % 15 lf 1012,7 hPa 0,2 l/m 0 min 2 min 54 W/m 6,3 km/h (2 Bft) 95,74 %
20.10.2016 10:20 7,6 C 8,3 C 7,2 C 98 % 15 lf 1012,6 hPa 0,0 l/m 0 min 2 min 70 W/m 8,4 km/h (2 Bft) 95,74 %
20.10.2016 10:22 7,7 C 7,8 C 7,2 C 98 % 15 lf 1012,7 hPa 0,0 l/m 0 min 2 min 81 W/m 8,4 km/h (2 Bft) 91,49 %
20.10.2016 10:24 7,7 C 8,3 C 7,2 C 98 % 15 lf 1012,6 hPa 0,0 l/m 0 min 2 min 84 W/m 8,4 km/h (2 Bft) 91,49 %
20.10.2016 10:26 7,7 C 8,3 C 7,2 C 98 % 15 lf 1012,6 hPa 0,0 l/m 0 min 2 min 84 W/m 8,4 km/h (2 Bft) 91,49 %
20.10.2016 10:28 7,7 C 8,3 C 7,2 C 98 % 15 lf 1012,6 hPa 0,2 l/m 0 min 2 min 84 W/m 6,3 km/h (2 Bft) 93,62 %
20.10.2016 10:30 7,7 C 8,3 C 7,2 C 98 % 15 lf 1012,6 hPa 0,0 l/m 0 min 2 min 91 W/m 2,1 km/h (1 Bft) 95,74 %
20.10.2016 10:32 7,7 C 8,3 C 7,2 C 98 % 15 lf 1012,6 hPa 0,0 l/m 0 min 2 min 94 W/m 6,3 km/h (2 Bft) 93,62 %
20.10.2016 10:34 7,7 C 8,3 C 7,2 C 98 % 15 lf 1012,6 hPa 0,0 l/m 0 min 2 min 94 W/m 6,3 km/h (2 Bft) 93,62 %
20.10.2016 10:36 7,8 C 8,3 C 7,2 C 98 % 15 lf 1012,5 hPa 0,0 l/m 0 min 2 min 93 W/m 4,2 km/h (1 Bft) 89,47 %
20.10.2016 10:38 7,8 C 8,3 C 7,2 C 98 % 15 lf 1012,5 hPa 0,0 l/m 0 min 2 min 91 W/m 6,3 km/h (2 Bft) 93,62 %
20.10.2016 10:40 7,8 C 8,3 C 7,2 C 98 % 15 lf 1012,5 hPa 0,0 l/m 0 min 2 min 92 W/m 4,2 km/h (1 Bft) 89,36 %
20.10.2016 10:42 7,8 C 8,3 C 7,2 C 98 % 15 lf 1012,5 hPa 0,0 l/m 0 min 2 min 91 W/m 6,3 km/h (2 Bft) 93,62 %
20.10.2016 10:44 7,8 C 8,3 C 7,2 C 98 % 15 lf 1012,5 hPa 0,0 l/m 0 min 2 min 72 W/m 8,4 km/h (2 Bft) 95,74 %
20.10.2016 10:46 7,8 C 8,3 C 7,2 C 98 % 15 lf 1012,5 hPa 0,0 l/m 0 min 2 min 64 W/m 6,3 km/h (2 Bft) 91,30 %
20.10.2016 10:48 7,9 C 8,3 C 7,2 C 98 % 15 lf 1012,5 hPa 0,0 l/m 0 min 2 min 67 W/m 4,2 km/h (1 Bft) 95,74 %
20.10.2016 10:50 7,9 C 8,3 C 7,8 C 98 % 15 lf 1012,4 hPa 0,0 l/m 0 min 2 min 82 W/m 4,2 km/h (1 Bft) 93,62 %
20.10.2016 10:52 7,9 C 8,3 C 7,8 C 98 % 15 lf 1012,4 hPa 0,0 l/m 0 min 2 min 88 W/m 4,2 km/h (1 Bft) 97,87 %
20.10.2016 10:54 7,9 C 8,3 C 7,8 C 98 % 15 lf 1012,4 hPa 0,0 l/m 0 min 2 min 80 W/m 6,3 km/h (2 Bft) 97,87 %
20.10.2016 10:56 7,9 C 8,3 C 7,2 C 98 % 15 lf 1012,4 hPa 0,0 l/m 0 min 2 min 69 W/m 6,3 km/h (2 Bft) 95,74 %
20.10.2016 10:58 8,0 C 8,3 C 7,2 C 98 % 15 lf 1012,5 hPa 0,0 l/m 0 min 2 min 58 W/m 6,3 km/h (2 Bft) 93,48 %
20.10.2016 11:00 8,0 C 8,3 C 7,2 C 98 % 15 lf 1012,5 hPa 0,0 l/m 0 min 2 min 54 W/m 4,2 km/h (1 Bft) 97,87 %
20.10.2016 11:02 8,0 C 8,3 C 7,2 C 98 % 15 lf 1012,5 hPa 0,0 l/m 0 min 2 min 48 W/m 4,2 km/h (1 Bft) 97,87 %
20.10.2016 11:04 8,0 C 8,3 C 7,2 C 98 % 15 lf 1012,5 hPa 0,0 l/m 0 min 2 min 41 W/m 10,5 km/h (2 Bft) 97,87 %
20.10.2016 11:06 8,0 C 8,3 C 7,2 C 98 % 15 lf 1012,6 hPa 0,0 l/m 0 min 2 min 31 W/m 8,4 km/h (2 Bft) 98,18 %
20.10.2016 11:08 8,0 C 8,3 C 7,2 C 98 % 15 lf 1012,6 hPa 0,0 l/m 0 min 2 min 27 W/m 8,4 km/h (2 Bft) 95,65 %
20.10.2016 11:10 8,0 C 7,8 C 7,2 C 98 % 15 lf 1012,6 hPa 0,0 l/m 0 min 2 min 31 W/m 6,3 km/h (2 Bft) 97,87 %
20.10.2016 11:12 8,0 C 8,3 C 7,2 C 98 % 15 lf 1012,6 hPa 0,0 l/m 0 min 2 min 39 W/m 8,4 km/h (2 Bft) 95,74 %
20.10.2016 11:14 8,0 C 8,3 C 7,2 C 98 % 15 lf 1012,6 hPa 0,2 l/m 0 min 2 min 51 W/m 4,2 km/h (1 Bft) 95,74 %
20.10.2016 11:16 8,0 C 8,3 C 7,2 C 98 % 15 lf 1012,5 hPa 0,0 l/m 0 min 2 min 56 W/m 4,2 km/h (1 Bft) 93,62 %
20.10.2016 11:18 8,0 C 8,3 C 7,2 C 98 % 15 lf 1012,5 hPa 0,0 l/m 0 min 2 min 53 W/m 4,2 km/h (1 Bft) 93,62 %
20.10.2016 11:20 8,0 C 8,3 C 7,2 C 98 % 15 lf 1012,5 hPa 0,0 l/m 0 min 2 min 51 W/m 4,2 km/h (1 Bft) 95,65 %
20.10.2016 11:22 8,0 C 8,3 C 7,2 C 98 % 15 lf 1012,5 hPa 0,0 l/m 0 min 2 min 54 W/m 4,2 km/h (1 Bft) 97,87 %
20.10.2016 11:24 8,0 C 8,3 C 7,2 C 98 % 15 lf 1012,5 hPa 0,0 l/m 0 min 2 min 57 W/m 6,3 km/h (2 Bft) 95,74 %
20.10.2016 11:26 8,1 C 8,3 C 7,2 C 98 % 15 lf 1012,5 hPa 0,0 l/m 0 min 2 min 53 W/m 6,3 km/h (2 Bft) 93,62 %
20.10.2016 11:28 8,1 C 8,3 C 7,2 C 98 % 15 lf 1012,5 hPa 0,0 l/m 0 min 2 min 52 W/m 4,2 km/h (1 Bft) 97,87 %
20.10.2016 11:30 8,1 C 8,3 C 7,2 C 98 % 15 lf 1012,5 hPa 0,0 l/m 0 min 2 min 54 W/m 6,3 km/h (2 Bft) 97,83 %
20.10.2016 11:32 8,1 C 8,3 C 7,2 C 98 % 15 lf 1012,5 hPa 0,0 l/m 0 min 2 min 58 W/m 4,2 km/h (1 Bft) 93,75 %
20.10.2016 11:34 8,1 C 8,3 C 7,2 C 98 % 15 lf 1012,5 hPa 0,2 l/m 0 min 2 min 65 W/m 4,2 km/h (1 Bft) 97,87 %
20.10.2016 11:36 8,1 C 8,3 C 7,8 C 98 % 15 lf 1012,5 hPa 0,0 l/m 0 min 2 min 80 W/m 6,3 km/h (2 Bft) 97,37 %
20.10.2016 11:38 8,1 C 8,9 C 7,8 C 98 % 15 lf 1012,5 hPa 0,0 l/m 0 min 2 min 83 W/m 6,3 km/h (2 Bft) 97,87 %
20.10.2016 11:40 8,2 C 8,3 C 7,8 C 98 % 15 lf 1012,4 hPa 0,0 l/m 0 min 2 min 80 W/m 6,3 km/h (2 Bft) 97,87 %
20.10.2016 11:42 8,2 C 8,3 C 7,8 C 98 % 15 lf 1012,5 hPa 0,0 l/m 0 min 2 min 77 W/m 6,3 km/h (2 Bft) 95,74 %
20.10.2016 11:44 8,2 C 8,3 C 7,8 C 98 % 15 lf 1012,5 hPa 0,0 l/m 0 min 2 min 76 W/m 8,4 km/h (2 Bft) 97,83 %
20.10.2016 11:46 8,2 C 8,3 C 7,8 C 98 % 15 lf 1012,5 hPa 0,0 l/m 0 min 2 min 74 W/m 6,3 km/h (2 Bft) 93,62 %
20.10.2016 11:48 8,2 C 8,3 C 7,8 C 98 % 15 lf 1012,4 hPa 0,0 l/m 0 min 2 min 68 W/m 6,3 km/h (2 Bft) 97,87 %
20.10.2016 11:50 8,2 C 8,3 C 7,8 C 98 % 15 lf 1012,4 hPa 0,0 l/m 0 min 2 min 65 W/m 4,2 km/h (1 Bft) 95,74 %
20.10.2016 11:52 8,2 C 8,3 C 7,8 C 98 % 15 lf 1012,4 hPa 0,0 l/m 0 min 2 min 64 W/m 4,2 km/h (1 Bft) 95,74 %
20.10.2016 11:54 8,2 C 8,3 C 7,8 C 98 % 15 lf 1012,4 hPa 0,2 l/m 0 min 2 min 65 W/m 6,3 km/h (2 Bft) 97,87 %
20.10.2016 11:56 8,2 C 8,3 C 7,8 C 98 % 15 lf 1012,4 hPa 0,0 l/m 0 min 2 min 62 W/m 2,1 km/h (1 Bft) 95,65 %
20.10.2016 11:58 8,2 C 8,3 C 7,8 C 98 % 15 lf 1012,4 hPa 0,0 l/m 0 min 2 min 58 W/m 4,2 km/h (1 Bft) 93,62 %
20.10.2016 12:00 8,2 C 8,3 C 7,2 C 98 % 15 lf 1012,3 hPa 0,0 l/m 0 min 2 min 54 W/m 2,1 km/h (1 Bft) 97,87 %
20.10.2016 12:02 8,2 C 8,3 C 7,8 C 98 % 15 lf 1012,3 hPa 0,0 l/m 0 min 2 min 56 W/m 2,1 km/h (1 Bft) 97,87 %
20.10.2016 12:06 8,2 C 8,3 C 7,8 C 98 % 15 lf 1012,3 hPa 0,0 l/m 0 min 2 min 59 W/m 6,3 km/h (2 Bft) 90,43 %
20.10.2016 12:08 8,2 C 8,3 C 7,8 C 98 % 15 lf 1012,3 hPa 0,0 l/m 0 min 2 min 58 W/m 4,2 km/h (1 Bft) 95,65 %
20.10.2016 12:10 8,2 C 8,3 C 7,8 C 98 % 15 lf 1012,4 hPa 0,0 l/m 0 min 2 min 59 W/m 4,2 km/h (1 Bft) 93,62 %
20.10.2016 12:12 8,2 C 8,3 C 7,2 C 98 % 15 lf 1012,3 hPa 0,2 l/m 0 min 2 min 62 W/m 8,4 km/h (2 Bft) 95,74 %
20.10.2016 12:14 8,2 C 8,3 C 7,2 C 98 % 15 lf 1012,3 hPa 0,0 l/m 0 min 2 min 67 W/m 6,3 km/h (2 Bft) 96,23 %
20.10.2016 12:16 8,2 C 8,3 C 7,2 C 98 % 15 lf 1012,3 hPa 0,0 l/m 0 min 2 min 69 W/m 4,2 km/h (1 Bft) 95,74 %
20.10.2016 12:18 8,2 C 8,3 C 7,2 C 98 % 15 lf 1012,2 hPa 0,0 l/m 0 min 2 min 66 W/m 2,1 km/h (1 Bft) 91,30 %
20.10.2016 12:20 8,2 C 8,3 C 7,2 C 98 % 15 lf 1012,3 hPa 0,2 l/m 0 min 2 min 61 W/m 4,2 km/h (1 Bft) 97,56 %
20.10.2016 12:22 8,2 C 8,3 C 7,2 C 98 % 15 lf 1012,3 hPa 0,0 l/m 0 min 2 min 51 W/m 2,1 km/h (1 Bft) 96,30 %
20.10.2016 12:24 8,2 C 7,8 C 7,2 C 98 % 15 lf 1012,3 hPa 0,0 l/m 0 min 2 min 41 W/m 2,1 km/h (1 Bft) 95,74 %
20.10.2016 12:26 8,2 C 7,8 C 7,2 C 98 % 15 lf 1012,3 hPa 0,0 l/m 0 min 2 min 38 W/m 2,1 km/h (1 Bft) 95,74 %
20.10.2016 12:28 8,2 C 7,8 C 7,2 C 98 % 15 lf 1012,3 hPa 0,0 l/m 0 min 2 min 36 W/m 2,1 km/h (1 Bft) 97,87 %
20.10.2016 12:30 8,2 C 7,8 C 7,2 C 98 % 15 lf 1012,3 hPa 0,0 l/m 0 min 2 min 33 W/m 4,2 km/h (1 Bft) 95,65 %
20.10.2016 12:32 8,1 C 8,3 C 7,2 C 98 % 15 lf 1012,3 hPa 0,2 l/m 0 min 2 min 30 W/m 2,1 km/h (1 Bft) 97,92 %
20.10.2016 12:34 8,1 C 7,8 C 7,2 C 98 % 15 lf 1012,3 hPa 0,0 l/m 0 min 2 min 26 W/m 0,0 km/h (0 Bft) 95,74 %
20.10.2016 12:36 8,1 C 7,8 C 7,2 C 98 % 15 lf 1012,3 hPa 0,2 l/m 0 min 2 min 26 W/m 0,0 km/h (0 Bft) 94,74 %
20.10.2016 12:38 8,1 C 8,3 C 7,2 C 98 % 15 lf 1012,2 hPa 0,2 l/m 0 min 2 min 30 W/m 0,0 km/h (0 Bft) 100,00 %
20.10.2016 12:40 8,1 C 7,8 C 7,2 C 98 % 15 lf 1012,3 hPa 0,0 l/m 0 min 2 min 34 W/m 2,1 km/h (1 Bft) 97,87 %
20.10.2016 12:42 8,1 C 7,8 C 7,2 C 98 % 15 lf 1012,3 hPa 0,2 l/m 0 min 2 min 43 W/m 6,3 km/h (2 Bft) 100,00 %
20.10.2016 12:44 8,1 C 8,3 C 7,2 C 98 % 15 lf 1012,3 hPa 0,0 l/m 0 min 2 min 44 W/m 2,1 km/h (1 Bft) 100,00 %
20.10.2016 12:46 8,1 C 8,3 C 7,2 C 98 % 15 lf 1012,2 hPa 0,0 l/m 0 min 2 min 38 W/m 2,1 km/h (1 Bft) 97,87 %
20.10.2016 12:48 8,1 C 8,3 C 7,2 C 98 % 15 lf 1012,2 hPa 0,0 l/m 0 min 2 min 34 W/m 2,1 km/h (1 Bft) 95,74 %
20.10.2016 12:50 8,1 C 8,3 C 7,2 C 98 % 15 lf 1012,2 hPa 0,2 l/m 0 min 2 min 36 W/m 0,0 km/h (0 Bft) 95,83 %
20.10.2016 12:52 8,1 C 8,3 C 7,2 C 98 % 15 lf 1012,2 hPa 0,0 l/m 0 min 2 min 40 W/m 0,0 km/h (0 Bft) 98,15 %
20.10.2016 12:54 8,1 C 8,3 C 7,2 C 98 % 15 lf 1012,2 hPa 0,0 l/m 0 min 2 min 42 W/m 0,0 km/h (0 Bft) 97,87 %
20.10.2016 12:56 8,1 C 8,3 C 7,2 C 98 % 15 lf 1012,2 hPa 0,2 l/m 0 min 2 min 41 W/m 0,0 km/h (0 Bft) 95,74 %
20.10.2016 12:58 8,1 C 7,8 C 7,2 C 98 % 15 lf 1012,2 hPa 0,0 l/m 0 min 2 min 39 W/m 0,0 km/h (0 Bft) 97,87 %
20.10.2016 13:00 8,1 C 8,3 C 7,2 C 98 % 15 lf 1012,2 hPa 0,2 l/m 0 min 2 min 40 W/m 0,0 km/h (0 Bft) 97,87 %
20.10.2016 13:02 8,1 C 8,3 C 7,2 C 98 % 15 lf 1012,2 hPa 0,0 l/m 0 min 2 min 44 W/m 0,0 km/h (0 Bft) 97,30 %
20.10.2016 13:04 8,1 C 8,3 C 7,2 C 98 % 15 lf 1012,1 hPa 0,0 l/m 0 min 2 min 44 W/m 0,0 km/h (0 Bft) 93,62 %
20.10.2016 13:08 8,1 C 8,3 C 7,2 C 98 % 15 lf 1012,1 hPa 0,2 l/m 0 min 2 min 42 W/m 0,0 km/h (0 Bft) 96,84 %
20.10.2016 13:10 8,1 C 7,8 C 7,2 C 98 % 15 lf 1012,1 hPa 0,0 l/m 0 min 2 min 45 W/m 0,0 km/h (0 Bft) 97,87 %
20.10.2016 13:12 8,1 C 7,8 C 7,2 C 98 % 15 lf 1012,1 hPa 0,0 l/m 0 min 2 min 49 W/m 0,0 km/h (0 Bft) 95,74 %
20.10.2016 13:14 8,1 C 7,8 C 7,2 C 98 % 15 lf 1012,0 hPa 0,0 l/m 0 min 2 min 51 W/m 0,0 km/h (0 Bft) 93,62 %
20.10.2016 13:16 8,1 C 8,3 C 7,2 C 98 % 15 lf 1012,1 hPa 0,2 l/m 0 min 2 min 51 W/m 0,0 km/h (0 Bft) 93,62 %
20.10.2016 13:18 8,1 C 8,3 C 7,2 C 98 % 15 lf 1012,1 hPa 0,0 l/m 0 min 2 min 49 W/m 0,0 km/h (0 Bft) 97,83 %
20.10.2016 13:20 8,1 C 8,3 C 7,2 C 98 % 15 lf 1012,0 hPa 0,0 l/m 0 min 2 min 44 W/m 0,0 km/h (0 Bft) 97,87 %
20.10.2016 13:22 8,1 C 8,3 C 7,2 C 98 % 15 lf 1012,0 hPa 0,0 l/m 0 min 2 min 41 W/m 6,3 km/h (2 Bft) 95,74 %
20.10.2016 13:24 8,1 C 8,3 C 7,2 C 98 % 15 lf 1012,0 hPa 0,2 l/m 0 min 2 min 42 W/m 6,3 km/h (2 Bft) 95,74 %
20.10.2016 13:26 8,1 C 8,3 C 7,2 C 98 % 15 lf 1012,0 hPa 0,0 l/m 0 min 2 min 44 W/m 8,4 km/h (2 Bft) 93,62 %
20.10.2016 13:28 8,1 C 8,3 C 7,2 C 98 % 15 lf 1012,0 hPa 0,2 l/m 0 min 2 min 48 W/m 6,3 km/h (2 Bft) 97,87 %
20.10.2016 13:30 8,1 C 8,3 C 7,2 C 98 % 15 lf 1012,0 hPa 0,0 l/m 0 min 2 min 53 W/m 6,3 km/h (2 Bft) 100,00 %
20.10.2016 13:32 8,2 C 8,3 C 7,2 C 98 % 15 lf 1011,8 hPa 0,0 l/m 0 min 2 min 53 W/m 8,4 km/h (2 Bft) 95,74 %
20.10.2016 13:34 8,1 C 8,3 C 7,2 C 98 % 15 lf 1011,8 hPa 0,0 l/m 0 min 2 min 49 W/m 10,5 km/h (2 Bft) 95,74 %
20.10.2016 13:36 8,1 C 8,3 C 7,2 C 98 % 15 lf 1011,8 hPa 0,2 l/m 0 min 2 min 46 W/m 8,4 km/h (2 Bft) 100,00 %
20.10.2016 13:38 8,2 C 8,3 C 7,2 C 98 % 15 lf 1011,8 hPa 0,0 l/m 0 min 2 min 43 W/m 10,5 km/h (2 Bft) 100,00 %
20.10.2016 13:40 8,2 C 8,3 C 7,2 C 98 % 15 lf 1011,8 hPa 0,0 l/m 0 min 2 min 42 W/m 10,5 km/h (2 Bft) 100,00 %
20.10.2016 13:42 8,2 C 8,3 C 7,2 C 98 % 15 lf 1011,7 hPa 0,0 l/m 0 min 2 min 43 W/m 6,3 km/h (2 Bft) 97,83 %
20.10.2016 13:44 8,2 C 8,3 C 7,2 C 98 % 15 lf 1011,8 hPa 0,2 l/m 0 min 2 min 47 W/m 8,4 km/h (2 Bft) 95,74 %
20.10.2016 13:46 8,2 C 8,3 C 7,2 C 98 % 15 lf 1011,8 hPa 0,0 l/m 0 min 2 min 49 W/m 8,4 km/h (2 Bft) 100,00 %
20.10.2016 13:48 8,2 C 8,3 C 7,2 C 98 % 15 lf 1011,7 hPa 0,0 l/m 0 min 2 min 49 W/m 8,4 km/h (2 Bft) 95,74 %
20.10.2016 13:50 8,2 C 8,3 C 7,2 C 98 % 15 lf 1011,7 hPa 0,0 l/m 0 min 2 min 51 W/m 8,4 km/h (2 Bft) 100,00 %
20.10.2016 13:52 8,2 C 8,3 C 7,2 C 98 % 15 lf 1011,6 hPa 0,2 l/m 0 min 2 min 54 W/m 4,2 km/h (1 Bft) 100,00 %
20.10.2016 13:54 8,1 C 8,3 C 7,2 C 98 % 15 lf 1011,7 hPa 0,0 l/m 0 min 2 min 56 W/m 8,4 km/h (2 Bft) 97,83 %
20.10.2016 13:56 8,1 C 8,3 C 7,2 C 98 % 15 lf 1011,6 hPa 0,0 l/m 0 min 2 min 57 W/m 6,3 km/h (2 Bft) 96,23 %
20.10.2016 13:58 8,2 C 8,3 C 7,2 C 98 % 15 lf 1011,6 hPa 0,0 l/m 0 min 2 min 51 W/m 10,5 km/h (2 Bft) 95,74 %
20.10.2016 14:00 8,1 C 8,3 C 7,2 C 98 % 15 lf 1011,6 hPa 0,2 l/m 0 min 2 min 49 W/m 8,4 km/h (2 Bft) 97,87 %
20.10.2016 14:02 8,1 C 8,3 C 7,2 C 98 % 15 lf 1011,5 hPa 0,0 l/m 0 min 2 min 56 W/m 10,5 km/h (2 Bft) 97,92 %
20.10.2016 14:04 8,2 C 8,3 C 7,8 C 98 % 15 lf 1011,5 hPa 0,0 l/m 0 min 2 min 68 W/m 10,5 km/h (2 Bft) 97,83 %
20.10.2016 14:06 8,2 C 8,3 C 7,8 C 98 % 15 lf 1011,5 hPa 0,0 l/m 0 min 2 min 67 W/m 10,5 km/h (2 Bft) 94,74 %
20.10.2016 14:08 8,2 C 8,3 C 7,8 C 98 % 15 lf 1011,5 hPa 0,0 l/m 0 min 2 min 53 W/m 6,3 km/h (2 Bft) 97,87 %
20.10.2016 14:10 8,2 C 8,3 C 7,2 C 98 % 15 lf 1011,5 hPa 0,0 l/m 0 min 2 min 47 W/m 10,5 km/h (2 Bft) 93,62 %
20.10.2016 14:12 8,2 C 8,3 C 7,2 C 98 % 15 lf 1011,5 hPa 0,0 l/m 0 min 2 min 48 W/m 10,5 km/h (2 Bft) 93,88 %
20.10.2016 14:14 8,2 C 8,3 C 7,8 C 98 % 15 lf 1011,5 hPa 0,0 l/m 0 min 2 min 55 W/m 10,5 km/h (2 Bft) 97,87 %
20.10.2016 14:16 8,2 C 8,3 C 7,2 C 98 % 15 lf 1011,5 hPa 0,0 l/m 0 min 2 min 53 W/m 10,5 km/h (2 Bft) 95,65 %
20.10.2016 14:18 8,2 C 7,8 C 7,2 C 98 % 15 lf 1011,5 hPa 0,0 l/m 0 min 2 min 53 W/m 10,5 km/h (2 Bft) 95,74 %
20.10.2016 14:20 8,2 C 8,3 C 7,2 C 98 % 15 lf 1011,5 hPa 0,0 l/m 0 min 2 min 61 W/m 8,4 km/h (2 Bft) 97,87 %
20.10.2016 14:22 8,2 C 8,3 C 7,2 C 98 % 15 lf 1011,5 hPa 0,0 l/m 0 min 2 min 62 W/m 10,5 km/h (2 Bft) 89,36 %
20.10.2016 14:24 8,2 C 8,3 C 7,8 C 98 % 15 lf 1011,5 hPa 0,0 l/m 0 min 2 min 58 W/m 8,4 km/h (2 Bft) 91,49 %
20.10.2016 14:26 8,2 C 8,3 C 7,8 C 98 % 15 lf 1011,5 hPa 0,0 l/m 0 min 2 min 62 W/m 4,2 km/h (1 Bft) 91,49 %
20.10.2016 14:28 8,2 C 8,3 C 7,8 C 98 % 15 lf 1011,5 hPa 0,0 l/m 0 min 2 min 71 W/m 6,3 km/h (2 Bft) 95,65 %
20.10.2016 14:30 8,2 C 8,3 C 7,8 C 98 % 15 lf 1011,5 hPa 0,0 l/m 0 min 2 min 90 W/m 6,3 km/h (2 Bft) 95,74 %
20.10.2016 14:32 8,2 C 8,3 C 7,8 C 98 % 15 lf 1011,5 hPa 0,2 l/m 0 min 2 min 98 W/m 6,3 km/h (2 Bft) 93,62 %
20.10.2016 14:34 8,2 C 8,3 C 7,8 C 98 % 15 lf 1011,4 hPa 0,0 l/m 0 min 2 min 103 W/m 10,5 km/h (2 Bft) 97,87 %
20.10.2016 14:36 8,2 C 8,3 C 7,8 C 98 % 15 lf 1011,4 hPa 0,0 l/m 0 min 2 min 84 W/m 10,5 km/h (2 Bft) 95,74 %
20.10.2016 14:38 8,2 C 8,9 C 7,8 C 99 % 15 lf 1011,4 hPa 0,0 l/m 0 min 2 min 73 W/m 14,6 km/h (3 Bft) 91,49 %
20.10.2016 14:40 8,3 C 8,3 C 7,8 C 99 % 15 lf 1011,4 hPa 0,0 l/m 0 min 2 min 69 W/m 10,5 km/h (2 Bft) 91,30 %
20.10.2016 14:42 8,3 C 8,3 C 7,8 C 99 % 15 lf 1011,5 hPa 0,0 l/m 0 min 2 min 65 W/m 6,3 km/h (2 Bft) 96,30 %
20.10.2016 14:44 8,3 C 8,3 C 7,8 C 99 % 15 lf 1011,4 hPa 0,0 l/m 0 min 2 min 66 W/m 12,6 km/h (3 Bft) 91,49 %
20.10.2016 14:46 8,3 C 8,3 C 7,8 C 99 % 15 lf 1011,4 hPa 0,0 l/m 0 min 2 min 69 W/m 10,5 km/h (2 Bft) 93,62 %
20.10.2016 14:48 8,3 C 8,3 C 7,8 C 99 % 15 lf 1011,4 hPa 0,0 l/m 0 min 2 min 77 W/m 10,5 km/h (2 Bft) 89,36 %
20.10.2016 14:50 8,3 C 8,3 C 7,8 C 99 % 15 lf 1011,4 hPa 0,0 l/m 0 min 2 min 85 W/m 6,3 km/h (2 Bft) 95,65 %
20.10.2016 14:52 8,3 C 8,3 C 7,8 C 99 % 15 lf 1011,3 hPa 0,0 l/m 0 min 2 min 84 W/m 4,2 km/h (1 Bft) 91,49 %
20.10.2016 14:54 8,3 C 8,3 C 7,8 C 99 % 15 lf 1011,3 hPa 0,0 l/m 0 min 0 min 82 W/m 6,3 km/h (2 Bft) 93,62 %
20.10.2016 14:56 8,3 C 8,3 C 7,8 C 99 % 15 lf 1011,3 hPa 0,0 l/m 0 min 2 min 82 W/m 6,3 km/h (2 Bft) 93,62 %
20.10.2016 14:58 8,3 C 8,3 C 7,8 C 99 % 15 lf 1011,3 hPa 0,0 l/m 0 min 2 min 82 W/m 14,6 km/h (3 Bft) 95,74 %
20.10.2016 15:00 8,3 C 8,3 C 7,8 C 99 % 15 lf 1011,3 hPa 0,0 l/m 0 min 0 min 72 W/m 8,4 km/h (2 Bft) 97,83 %
20.10.2016 15:02 8,3 C 8,3 C 7,8 C 99 % 15 lf 1011,3 hPa 0,0 l/m 0 min 0 min 60 W/m 8,4 km/h (2 Bft) 95,83 %
20.10.2016 15:04 8,3 C 8,3 C 7,8 C 99 % 15 lf 1011,3 hPa 0,0 l/m 0 min 0 min 53 W/m 12,6 km/h (3 Bft) 93,62 %
20.10.2016 15:06 8,3 C 8,3 C 7,2 C 99 % 15 lf 1011,3 hPa 0,0 l/m 0 min 0 min 48 W/m 10,5 km/h (2 Bft) 92,11 %
20.10.2016 15:08 8,3 C 8,3 C 7,2 C 99 % 15 lf 1011,3 hPa 0,0 l/m 0 min 0 min 44 W/m 8,4 km/h (2 Bft) 91,49 %
20.10.2016 15:10 8,2 C 8,3 C 7,2 C 99 % 15 lf 1011,3 hPa 0,0 l/m 0 min 0 min 40 W/m 12,6 km/h (3 Bft) 93,62 %
20.10.2016 15:12 8,2 C 8,3 C 7,2 C 98 % 15 lf 1011,3 hPa 0,0 l/m 0 min 2 min 36 W/m 14,6 km/h (3 Bft) 97,92 %
20.10.2016 15:14 8,2 C 8,3 C 7,2 C 98 % 15 lf 1011,3 hPa 0,0 l/m 0 min 2 min 34 W/m 10,5 km/h (2 Bft) 97,87 %
20.10.2016 15:16 8,2 C 8,3 C 7,2 C 98 % 15 lf 1011,2 hPa 0,0 l/m 0 min 2 min 34 W/m 14,6 km/h (3 Bft) 93,48 %
20.10.2016 15:18 8,2 C 8,3 C 7,2 C 98 % 15 lf 1011,3 hPa 0,0 l/m 0 min 2 min 37 W/m 6,3 km/h (2 Bft) 97,87 %
20.10.2016 15:20 8,2 C 8,3 C 7,2 C 98 % 15 lf 1011,2 hPa 0,0 l/m 0 min 2 min 39 W/m 10,5 km/h (2 Bft) 95,74 %
20.10.2016 15:22 8,2 C 8,3 C 7,2 C 98 % 15 lf 1011,2 hPa 0,0 l/m 0 min 2 min 40 W/m 14,6 km/h (3 Bft) 97,87 %
20.10.2016 15:24 8,2 C 8,3 C 7,2 C 98 % 15 lf 1011,2 hPa 0,0 l/m 0 min 2 min 47 W/m 10,5 km/h (2 Bft) 95,74 %
20.10.2016 15:26 8,2 C 8,3 C 7,2 C 98 % 15 lf 1011,2 hPa 0,0 l/m 0 min 2 min 53 W/m 10,5 km/h (2 Bft) 93,62 %
20.10.2016 15:28 8,2 C 8,3 C 7,2 C 98 % 15 lf 1011,2 hPa 0,2 l/m 0 min 2 min 49 W/m 10,5 km/h (2 Bft) 97,83 %
20.10.2016 15:30 8,2 C 8,3 C 7,2 C 98 % 15 lf 1011,2 hPa 0,0 l/m 0 min 2 min 37 W/m 12,6 km/h (3 Bft) 93,62 %
20.10.2016 15:32 8,2 C 8,3 C 7,2 C 98 % 15 lf 1011,2 hPa 0,0 l/m 0 min 2 min 33 W/m 14,6 km/h (3 Bft) 98,15 %
20.10.2016 15:34 8,1 C 7,8 C 7,2 C 98 % 15 lf 1011,1 hPa 0,0 l/m 0 min 2 min 34 W/m 14,6 km/h (3 Bft) 91,49 %
20.10.2016 15:36 8,2 C 7,8 C 7,2 C 98 % 15 lf 1011,2 hPa 0,0 l/m 0 min 2 min 35 W/m 14,6 km/h (3 Bft) 97,37 %
20.10.2016 15:38 8,1 C 7,8 C 7,2 C 98 % 15 lf 1011,1 hPa 0,0 l/m 0 min 2 min 32 W/m 12,6 km/h (3 Bft) 97,87 %
20.10.2016 15:40 8,1 C 7,8 C 7,2 C 98 % 15 lf 1011,2 hPa 0,0 l/m 0 min 2 min 30 W/m 12,6 km/h (3 Bft) 97,83 %
20.10.2016 15:42 8,1 C 7,8 C 7,2 C 98 % 15 lf 1011,1 hPa 0,0 l/m 0 min 2 min 28 W/m 10,5 km/h (2 Bft) 95,74 %
20.10.2016 15:44 8,1 C 7,8 C 7,2 C 98 % 15 lf 1011,1 hPa 0,0 l/m 0 min 2 min 26 W/m 12,6 km/h (3 Bft) 95,74 %
20.10.2016 15:46 8,1 C 7,8 C 7,2 C 98 % 15 lf 1011,1 hPa 0,0 l/m 0 min 2 min 26 W/m 10,5 km/h (2 Bft) 97,87 %
20.10.2016 15:48 8,1 C 7,8 C 7,2 C 98 % 15 lf 1011,1 hPa 0,0 l/m 0 min 2 min 27 W/m 6,3 km/h (2 Bft) 95,74 %
20.10.2016 15:50 8,1 C 8,3 C 7,2 C 98 % 15 lf 1011,2 hPa 0,0 l/m 0 min 2 min 27 W/m 4,2 km/h (1 Bft) 93,48 %
20.10.2016 15:52 8,1 C 8,3 C 7,2 C 98 % 15 lf 1011,1 hPa 0,0 l/m 0 min 2 min 31 W/m 8,4 km/h (2 Bft) 93,62 %
20.10.2016 15:54 8,1 C 8,3 C 7,2 C 98 % 15 lf 1011,2 hPa 0,0 l/m 0 min 2 min 33 W/m 8,4 km/h (2 Bft) 95,74 %
20.10.2016 15:56 8,1 C 8,3 C 7,2 C 98 % 15 lf 1011,2 hPa 0,0 l/m 0 min 2 min 31 W/m 8,4 km/h (2 Bft) 95,74 %
20.10.2016 15:58 8,1 C 8,3 C 7,2 C 98 % 15 lf 1011,2 hPa 0,2 l/m 0 min 2 min 27 W/m 6,3 km/h (2 Bft) 95,74 %
20.10.2016 16:00 8,1 C 8,3 C 7,2 C 98 % 15 lf 1011,2 hPa 0,0 l/m 0 min 2 min 25 W/m 6,3 km/h (2 Bft) 95,74 %
20.10.2016 16:02 8,1 C 8,3 C 7,2 C 98 % 15 lf 1011,2 hPa 0,0 l/m 0 min 2 min 22 W/m 6,3 km/h (2 Bft) 91,30 %
20.10.2016 16:04 8,1 C 8,3 C 7,2 C 98 % 15 lf 1011,2 hPa 0,0 l/m 0 min 2 min 21 W/m 4,2 km/h (1 Bft) 95,74 %
20.10.2016 16:06 8,1 C 8,3 C 7,2 C 98 % 15 lf 1011,2 hPa 0,0 l/m 0 min 2 min 19 W/m 4,2 km/h (1 Bft) 91,84 %
20.10.2016 16:08 8,1 C 8,3 C 7,2 C 98 % 15 lf 1011,2 hPa 0,0 l/m 0 min 2 min 17 W/m 4,2 km/h (1 Bft) 97,87 %
20.10.2016 16:10 8,1 C 8,3 C 7,2 C 98 % 15 lf 1011,3 hPa 0,0 l/m 0 min 2 min 16 W/m 8,4 km/h (2 Bft) 93,62 %
20.10.2016 16:12 8,1 C 7,8 C 7,2 C 98 % 15 lf 1011,2 hPa 0,0 l/m 0 min 2 min 18 W/m 6,3 km/h (2 Bft) 97,87 %
20.10.2016 16:14 8,1 C 7,8 C 7,2 C 98 % 15 lf 1011,2 hPa 0,0 l/m 0 min 2 min 17 W/m 6,3 km/h (2 Bft) 97,83 %
20.10.2016 16:16 8,1 C 8,3 C 7,2 C 98 % 15 lf 1011,2 hPa 0,2 l/m 0 min 2 min 16 W/m 6,3 km/h (2 Bft) 97,87 %
20.10.2016 16:18 8,1 C 7,8 C 7,2 C 98 % 15 lf 1011,2 hPa 0,0 l/m 0 min 2 min 16 W/m 6,3 km/h (2 Bft) 100,00 %
20.10.2016 16:20 8,1 C 8,3 C 7,2 C 98 % 15 lf 1011,3 hPa 0,0 l/m 0 min 2 min 14 W/m 6,3 km/h (2 Bft) 97,87 %
20.10.2016 16:22 8,1 C 8,3 C 7,2 C 98 % 15 lf 1011,2 hPa 0,0 l/m 0 min 2 min 14 W/m 4,2 km/h (1 Bft) 100,00 %
20.10.2016 16:24 8,1 C 8,3 C 7,2 C 98 % 15 lf 1011,2 hPa 0,0 l/m 0 min 2 min 14 W/m 4,2 km/h (1 Bft) 97,87 %
20.10.2016 16:26 8,1 C 8,3 C 7,2 C 98 % 15 lf 1011,2 hPa 0,0 l/m 0 min 2 min 14 W/m 2,1 km/h (1 Bft) 100,00 %
20.10.2016 16:28 8,1 C 7,8 C 7,2 C 98 % 15 lf 1011,2 hPa 0,0 l/m 0 min 2 min 14 W/m 4,2 km/h (1 Bft) 100,00 %
20.10.2016 16:30 8,1 C 7,8 C 7,2 C 98 % 15 lf 1011,2 hPa 0,2 l/m 0 min 2 min 14 W/m 4,2 km/h (1 Bft) 95,74 %
20.10.2016 16:32 8,1 C 7,8 C 7,2 C 98 % 15 lf 1011,2 hPa 0,0 l/m 0 min 2 min 15 W/m 4,2 km/h (1 Bft) 100,00 %
20.10.2016 16:34 8,1 C 8,3 C 7,2 C 98 % 15 lf 1011,2 hPa 0,0 l/m 0 min 2 min 16 W/m 6,3 km/h (2 Bft) 100,00 %
20.10.2016 16:36 8,1 C 8,3 C 7,2 C 98 % 15 lf 1011,2 hPa 0,2 l/m 0 min 2 min 19 W/m 6,3 km/h (2 Bft) 98,00 %
20.10.2016 16:38 8,2 C 8,3 C 7,2 C 98 % 15 lf 1011,2 hPa 0,0 l/m 0 min 2 min 21 W/m 6,3 km/h (2 Bft) 89,36 %
20.10.2016 16:40 8,2 C 8,3 C 7,2 C 98 % 15 lf 1011,3 hPa 0,0 l/m 0 min 2 min 19 W/m 6,3 km/h (2 Bft) 100,00 %
20.10.2016 16:42 8,2 C 8,3 C 7,2 C 98 % 15 lf 1011,3 hPa 0,0 l/m 0 min 2 min 16 W/m 6,3 km/h (2 Bft) 97,37 %
20.10.2016 16:44 8,2 C 8,3 C 7,2 C 98 % 15 lf 1011,4 hPa 0,0 l/m 0 min 2 min 13 W/m 4,2 km/h (1 Bft) 97,87 %
20.10.2016 16:46 8,2 C 8,3 C 7,2 C 98 % 15 lf 1011,4 hPa 0,0 l/m 0 min 2 min 12 W/m 6,3 km/h (2 Bft) 95,74 %
20.10.2016 16:48 8,2 C 8,3 C 7,2 C 98 % 15 lf 1011,4 hPa 0,0 l/m 0 min 2 min 13 W/m 8,4 km/h (2 Bft) 100,00 %
20.10.2016 16:50 8,2 C 8,3 C 7,2 C 98 % 15 lf 1011,4 hPa 0,0 l/m 0 min 2 min 18 W/m 10,5 km/h (2 Bft) 100,00 %
20.10.2016 16:52 8,2 C 8,3 C 7,2 C 98 % 15 lf 1011,5 hPa 0,0 l/m 0 min 2 min 16 W/m 6,3 km/h (2 Bft) 100,00 %
20.10.2016 16:54 8,2 C 8,3 C 7,2 C 98 % 15 lf 1011,6 hPa 0,2 l/m 0 min 2 min 16 W/m 10,5 km/h (2 Bft) 100,00 %
20.10.2016 16:56 8,2 C 8,3 C 7,2 C 98 % 15 lf 1011,6 hPa 0,0 l/m 0 min 2 min 11 W/m 8,4 km/h (2 Bft) 100,00 %
20.10.2016 16:58 8,2 C 8,3 C 7,2 C 98 % 15 lf 1011,7 hPa 0,0 l/m 0 min 2 min 7 W/m 10,5 km/h (2 Bft) 97,87 %
20.10.2016 17:00 8,2 C 8,3 C 7,2 C 98 % 15 lf 1011,7 hPa 0,0 l/m 0 min 2 min 7 W/m 10,5 km/h (2 Bft) 100,00 %
20.10.2016 17:02 8,2 C 8,3 C 7,2 C 98 % 15 lf 1011,8 hPa 0,0 l/m 0 min 2 min 7 W/m 6,3 km/h (2 Bft) 97,87 %
20.10.2016 17:04 8,2 C 8,3 C 7,2 C 98 % 15 lf 1011,8 hPa 0,0 l/m 0 min 2 min 7 W/m 12,6 km/h (3 Bft) 100,00 %
20.10.2016 17:06 8,2 C 8,3 C 7,2 C 98 % 15 lf 1011,8 hPa 0,0 l/m 0 min 2 min 8 W/m 12,6 km/h (3 Bft) 100,00 %
20.10.2016 17:08 8,2 C 8,3 C 7,2 C 98 % 15 lf 1011,8 hPa 0,0 l/m 0 min 0 min 10 W/m 8,4 km/h (2 Bft) 100,00 %
20.10.2016 17:10 8,2 C 7,8 C 7,2 C 98 % 15 lf 1011,8 hPa 0,0 l/m 0 min 0 min 11 W/m 10,5 km/h (2 Bft) 100,00 %
20.10.2016 17:12 8,2 C 7,8 C 7,2 C 98 % 15 lf 1011,9 hPa 0,0 l/m 0 min 0 min 11 W/m 10,5 km/h (2 Bft) 100,00 %
20.10.2016 17:14 8,2 C 7,8 C 7,2 C 98 % 15 lf 1011,9 hPa 0,0 l/m 0 min 0 min 11 W/m 8,4 km/h (2 Bft) 100,00 %
20.10.2016 17:16 8,1 C 7,8 C 7,2 C 98 % 15 lf 1012,0 hPa 0,0 l/m 0 min 0 min 14 W/m 10,5 km/h (2 Bft) 97,87 %
20.10.2016 17:18 8,1 C 7,8 C 7,2 C 98 % 15 lf 1011,9 hPa 0,0 l/m 0 min 0 min 15 W/m 12,6 km/h (3 Bft) 93,62 %
20.10.2016 17:20 8,1 C 7,8 C 6,7 C 98 % 15 lf 1012,0 hPa 0,0 l/m 0 min 0 min 14 W/m 10,5 km/h (2 Bft) 97,87 %
20.10.2016 17:22 8,1 C 7,8 C 7,2 C 98 % 15 lf 1011,9 hPa 0,0 l/m 0 min 0 min 14 W/m 10,5 km/h (2 Bft) 97,83 %
20.10.2016 17:24 8,1 C 7,8 C 7,2 C 98 % 15 lf 1011,9 hPa 0,0 l/m 0 min 0 min 18 W/m 10,5 km/h (2 Bft) 97,87 %
20.10.2016 17:26 8,1 C 8,3 C 7,2 C 98 % 15 lf 1011,9 hPa 0,0 l/m 0 min 0 min 26 W/m 8,4 km/h (2 Bft) 95,74 %
20.10.2016 17:28 8,1 C 8,3 C 7,2 C 98 % 15 lf 1011,9 hPa 0,0 l/m 0 min 0 min 28 W/m 8,4 km/h (2 Bft) 93,62 %
20.10.2016 17:30 8,1 C 8,3 C 7,2 C 98 % 15 lf 1012,0 hPa 0,0 l/m 0 min 0 min 25 W/m 8,4 km/h (2 Bft) 95,74 %
20.10.2016 17:32 8,1 C 8,3 C 7,2 C 98 % 15 lf 1012,1 hPa 0,0 l/m 0 min 0 min 18 W/m 10,5 km/h (2 Bft) 93,62 %
20.10.2016 17:34 8,1 C 8,3 C 7,2 C 98 % 15 lf 1012,1 hPa 0,0 l/m 0 min 0 min 11 W/m 12,6 km/h (3 Bft) 100,00 %
20.10.2016 17:36 8,1 C 8,3 C 7,2 C 98 % 15 lf 1012,1 hPa 0,0 l/m 0 min 0 min 9 W/m 16,7 km/h (3 Bft) 97,67 %
20.10.2016 17:38 8,1 C 8,3 C 7,2 C 98 % 15 lf 1012,0 hPa 0,0 l/m 0 min 0 min 9 W/m 14,6 km/h (3 Bft) 93,62 %
20.10.2016 17:40 8,1 C 8,3 C 7,2 C 98 % 15 lf 1012,0 hPa 0,0 l/m 0 min 0 min 11 W/m 12,6 km/h (3 Bft) 93,62 %
20.10.2016 17:42 8,2 C 8,3 C 7,2 C 98 % 15 lf 1012,0 hPa 0,0 l/m 0 min 0 min 11 W/m 12,6 km/h (3 Bft) 95,74 %
20.10.2016 17:44 8,2 C 8,3 C 7,2 C 98 % 15 lf 1012,0 hPa 0,0 l/m 0 min 0 min 16 W/m 16,7 km/h (3 Bft) 93,62 %
20.10.2016 17:46 8,2 C 8,3 C 7,2 C 98 % 15 lf 1012,0 hPa 0,0 l/m 0 min 0 min 24 W/m 10,5 km/h (2 Bft) 91,49 %
20.10.2016 17:48 8,2 C 8,3 C 7,2 C 98 % 15 lf 1012,1 hPa 0,0 l/m 0 min 0 min 26 W/m 10,5 km/h (2 Bft) 95,65 %
20.10.2016 17:50 8,2 C 8,3 C 7,2 C 98 % 15 lf 1012,0 hPa 0,0 l/m 0 min 0 min 25 W/m 8,4 km/h (2 Bft) 94,29 %
20.10.2016 17:52 8,2 C 8,3 C 7,2 C 98 % 15 lf 1012,0 hPa 0,0 l/m 0 min 0 min 22 W/m 6,3 km/h (2 Bft) 92,06 %
20.10.2016 17:54 8,2 C 8,3 C 7,2 C 98 % 15 lf 1012,1 hPa 0,0 l/m 0 min 0 min 19 W/m 8,4 km/h (2 Bft) 95,74 %
20.10.2016 17:56 8,2 C 8,3 C 7,2 C 98 % 15 lf 1012,1 hPa 0,0 l/m 0 min 0 min 14 W/m 8,4 km/h (2 Bft) 95,74 %
20.10.2016 17:58 8,2 C 8,3 C 7,2 C 98 % 15 lf 1012,1 hPa 0,0 l/m 0 min 0 min 11 W/m 10,5 km/h (2 Bft) 93,48 %
20.10.2016 18:00 8,2 C 8,3 C 7,2 C 98 % 15 lf 1012,2 hPa 0,0 l/m 0 min 0 min 9 W/m 10,5 km/h (2 Bft) 93,62 %
20.10.2016 18:02 8,2 C 8,3 C 7,2 C 98 % 15 lf 1012,2 hPa 0,0 l/m 0 min 0 min 7 W/m 14,6 km/h (3 Bft) 91,49 %
20.10.2016 18:06 8,2 C 8,3 C 7,2 C 98 % 15 lf 1012,3 hPa 0,0 l/m 0 min 0 min 9 W/m 10,5 km/h (2 Bft) 94,68 %
20.10.2016 18:08 8,2 C 8,3 C 7,2 C 98 % 15 lf 1012,3 hPa 0,0 l/m 0 min 0 min 9 W/m 10,5 km/h (2 Bft) 93,62 %
20.10.2016 18:10 8,2 C 8,3 C 7,2 C 98 % 15 lf 1012,2 hPa 0,0 l/m 0 min 0 min 9 W/m 10,5 km/h (2 Bft) 97,83 %
20.10.2016 18:12 8,2 C 8,3 C 7,2 C 98 % 15 lf 1012,2 hPa 0,0 l/m 0 min 0 min 9 W/m 10,5 km/h (2 Bft) 95,74 %
20.10.2016 18:14 8,2 C 8,3 C 7,2 C 98 % 15 lf 1012,3 hPa 0,0 l/m 0 min 0 min 9 W/m 8,4 km/h (2 Bft) 95,74 %
20.10.2016 18:16 8,2 C 8,3 C 7,2 C 98 % 15 lf 1012,3 hPa 0,0 l/m 0 min 0 min 7 W/m 8,4 km/h (2 Bft) 95,74 %
20.10.2016 18:18 8,2 C 8,3 C 7,2 C 98 % 15 lf 1012,4 hPa 0,0 l/m 0 min 0 min 5 W/m 12,6 km/h (3 Bft) 87,23 %
20.10.2016 18:20 8,2 C 7,8 C 7,2 C 98 % 15 lf 1012,4 hPa 0,0 l/m 0 min 0 min 4 W/m 12,6 km/h (3 Bft) 95,65 %
20.10.2016 18:22 8,2 C 7,8 C 7,2 C 98 % 15 lf 1012,5 hPa 0,0 l/m 0 min 0 min 0 W/m 10,5 km/h (2 Bft) 95,74 %
20.10.2016 18:24 8,2 C 7,8 C 7,2 C 98 % 15 lf 1012,5 hPa 0,0 l/m 0 min 0 min 0 W/m 10,5 km/h (2 Bft) 93,62 %
20.10.2016 18:26 8,2 C 7,8 C 7,2 C 98 % 15 lf 1012,4 hPa 0,0 l/m 0 min 0 min 0 W/m 12,6 km/h (3 Bft) 93,62 %
20.10.2016 18:28 8,2 C 7,8 C 7,2 C 98 % 15 lf 1012,4 hPa 0,0 l/m 0 min 0 min 0 W/m 10,5 km/h (2 Bft) 93,62 %
20.10.2016 18:30 8,2 C 7,8 C 7,2 C 98 % 15 lf 1012,4 hPa 0,0 l/m 0 min 0 min 0 W/m 10,5 km/h (2 Bft) 93,62 %
20.10.2016 18:32 8,2 C 7,8 C 7,2 C 98 % 15 lf 1012,4 hPa 0,0 l/m 0 min 0 min 0 W/m 12,6 km/h (3 Bft) 95,65 %
20.10.2016 18:34 8,2 C 7,8 C 7,2 C 98 % 15 lf 1012,3 hPa 0,0 l/m 0 min 0 min 0 W/m 10,5 km/h (2 Bft) 95,74 %
20.10.2016 18:36 8,2 C 7,8 C 6,7 C 98 % 15 lf 1012,3 hPa 0,0 l/m 0 min 0 min 0 W/m 16,7 km/h (3 Bft) 93,02 %
20.10.2016 18:38 8,2 C 7,8 C 6,7 C 98 % 15 lf 1012,4 hPa 0,0 l/m 0 min 0 min 0 W/m 14,6 km/h (3 Bft) 95,74 %
20.10.2016 18:40 8,1 C 7,8 C 6,7 C 98 % 15 lf 1012,5 hPa 0,0 l/m 0 min 0 min 0 W/m 12,6 km/h (3 Bft) 95,74 %
20.10.2016 18:42 8,1 C 7,8 C 6,7 C 98 % 15 lf 1012,6 hPa 0,0 l/m 0 min 0 min 0 W/m 10,5 km/h (2 Bft) 95,74 %
20.10.2016 18:44 8,1 C 7,8 C 6,7 C 98 % 15 lf 1012,7 hPa 0,0 l/m 0 min 0 min 0 W/m 10,5 km/h (2 Bft) 93,62 %
20.10.2016 18:46 8,1 C 7,8 C 6,7 C 98 % 15 lf 1012,6 hPa 0,0 l/m 0 min 0 min 0 W/m 8,4 km/h (2 Bft) 97,83 %
20.10.2016 18:48 8,1 C 7,8 C 6,7 C 98 % 15 lf 1012,7 hPa 0,0 l/m 0 min 0 min 0 W/m 6,3 km/h (2 Bft) 97,87 %
20.10.2016 18:50 8,1 C 7,8 C 6,7 C 98 % 15 lf 1012,8 hPa 0,0 l/m 0 min 0 min 0 W/m 10,5 km/h (2 Bft) 94,29 %
20.10.2016 18:52 8,1 C 7,8 C 6,7 C 98 % 15 lf 1012,8 hPa 0,0 l/m 0 min 0 min 0 W/m 8,4 km/h (2 Bft) 96,83 %
20.10.2016 18:54 8,1 C 7,8 C 6,7 C 98 % 15 lf 1012,8 hPa 0,0 l/m 0 min 0 min 0 W/m 8,4 km/h (2 Bft) 95,74 %
20.10.2016 18:56 8,1 C 7,8 C 6,7 C 99 % 15 lf 1012,8 hPa 0,0 l/m 0 min 0 min 0 W/m 12,6 km/h (3 Bft) 97,83 %
20.10.2016 18:58 8,0 C 7,8 C 6,7 C 99 % 15 lf 1012,8 hPa 0,0 l/m 0 min 0 min 0 W/m 16,7 km/h (3 Bft) 93,62 %
20.10.2016 19:00 8,0 C 7,8 C 6,7 C 99 % 15 lf 1012,8 hPa 0,0 l/m 0 min 0 min 0 W/m 10,5 km/h (2 Bft) 97,87 %
20.10.2016 19:02 8,0 C 7,8 C 6,7 C 99 % 15 lf 1012,8 hPa 0,0 l/m 0 min 0 min 0 W/m 16,7 km/h (3 Bft) 97,87 %
20.10.2016 19:04 8,0 C 7,8 C 6,7 C 99 % 15 lf 1012,8 hPa 0,0 l/m 0 min 0 min 0 W/m 12,6 km/h (3 Bft) 95,74 %
20.10.2016 19:06 7,9 C 7,8 C 6,7 C 99 % 15 lf 1012,8 hPa 0,0 l/m 0 min 0 min 0 W/m 10,5 km/h (2 Bft) 92,86 %
20.10.2016 19:08 7,9 C 7,8 C 6,7 C 99 % 15 lf 1012,9 hPa 0,0 l/m 0 min 0 min 0 W/m 10,5 km/h (2 Bft) 97,87 %
20.10.2016 19:10 7,9 C 7,8 C 6,7 C 99 % 15 lf 1013,0 hPa 0,0 l/m 0 min 0 min 0 W/m 8,4 km/h (2 Bft) 95,65 %
20.10.2016 19:12 7,9 C 7,8 C 6,7 C 99 % 15 lf 1013,0 hPa 0,0 l/m 0 min 0 min 0 W/m 10,5 km/h (2 Bft) 95,74 %
20.10.2016 19:14 7,9 C 7,8 C 6,7 C 99 % 15 lf 1013,0 hPa 0,0 l/m 0 min 0 min 0 W/m 10,5 km/h (2 Bft) 97,87 %
20.10.2016 19:16 7,9 C 7,8 C 6,7 C 98 % 15 lf 1013,0 hPa 0,0 l/m 0 min 0 min 0 W/m 12,6 km/h (3 Bft) 95,74 %
20.10.2016 19:18 7,9 C 7,8 C 6,7 C 99 % 15 lf 1013,0 hPa 0,0 l/m 0 min 0 min 0 W/m 8,4 km/h (2 Bft) 97,87 %
20.10.2016 19:20 7,9 C 7,8 C 6,7 C 98 % 15 lf 1013,0 hPa 0,0 l/m 0 min 0 min 0 W/m 6,3 km/h (2 Bft) 93,48 %
20.10.2016 19:22 7,8 C 7,2 C 6,7 C 98 % 15 lf 1013,1 hPa 0,0 l/m 0 min 0 min 0 W/m 6,3 km/h (2 Bft) 95,83 %
20.10.2016 19:24 7,8 C 7,2 C 6,1 C 98 % 15 lf 1013,1 hPa 0,0 l/m 0 min 0 min 0 W/m 8,4 km/h (2 Bft) 95,74 %
20.10.2016 19:26 7,8 C 7,2 C 6,1 C 98 % 15 lf 1013,1 hPa 0,0 l/m 0 min 0 min 0 W/m 6,3 km/h (2 Bft) 97,87 %
20.10.2016 19:28 7,8 C 7,2 C 6,1 C 98 % 15 lf 1013,1 hPa 0,0 l/m 0 min 0 min 0 W/m 8,4 km/h (2 Bft) 97,87 %
20.10.2016 19:30 7,8 C 7,2 C 6,1 C 98 % 15 lf 1013,2 hPa 0,0 l/m 0 min 0 min 0 W/m 10,5 km/h (2 Bft) 97,87 %
20.10.2016 19:32 7,8 C 7,2 C 6,1 C 98 % 15 lf 1013,1 hPa 0,0 l/m 0 min 0 min 0 W/m 10,5 km/h (2 Bft) 97,87 %
20.10.2016 19:34 7,8 C 7,2 C 6,1 C 98 % 15 lf 1013,1 hPa 0,0 l/m 0 min 0 min 0 W/m 6,3 km/h (2 Bft) 97,87 %
20.10.2016 19:36 7,7 C 7,2 C 6,1 C 98 % 15 lf 1013,1 hPa 0,0 l/m 0 min 0 min 0 W/m 12,6 km/h (3 Bft) 94,00 %
20.10.2016 19:38 7,7 C 7,2 C 6,1 C 98 % 15 lf 1013,1 hPa 0,0 l/m 0 min 0 min 0 W/m 10,5 km/h (2 Bft) 93,62 %
20.10.2016 19:40 7,7 C 7,2 C 6,1 C 98 % 15 lf 1013,1 hPa 0,0 l/m 0 min 0 min 0 W/m 8,4 km/h (2 Bft) 95,74 %
20.10.2016 19:42 7,7 C 7,2 C 6,1 C 98 % 15 lf 1013,1 hPa 0,0 l/m 0 min 0 min 0 W/m 6,3 km/h (2 Bft) 97,87 %
20.10.2016 19:44 7,7 C 7,2 C 6,1 C 98 % 15 lf 1013,1 hPa 0,0 l/m 0 min 0 min 0 W/m 6,3 km/h (2 Bft) 97,83 %
20.10.2016 19:46 7,7 C 7,2 C 6,1 C 98 % 15 lf 1013,2 hPa 0,0 l/m 0 min 0 min 0 W/m 6,3 km/h (2 Bft) 97,87 %
20.10.2016 19:48 7,7 C 7,2 C 6,1 C 98 % 15 lf 1013,2 hPa 0,0 l/m 0 min 0 min 0 W/m 8,4 km/h (2 Bft) 95,74 %
20.10.2016 19:50 7,7 C 7,2 C 6,1 C 98 % 15 lf 1013,2 hPa 0,0 l/m 0 min 0 min 0 W/m 6,3 km/h (2 Bft) 95,74 %
20.10.2016 19:52 7,7 C 7,2 C 6,1 C 98 % 15 lf 1013,1 hPa 0,0 l/m 0 min 0 min 0 W/m 8,4 km/h (2 Bft) 93,62 %
20.10.2016 19:54 7,6 C 7,2 C 6,1 C 98 % 15 lf 1013,2 hPa 0,0 l/m 0 min 0 min 0 W/m 8,4 km/h (2 Bft) 97,83 %
20.10.2016 19:56 7,6 C 7,2 C 6,1 C 98 % 15 lf 1013,2 hPa 0,0 l/m 0 min 0 min 0 W/m 8,4 km/h (2 Bft) 95,74 %
20.10.2016 19:58 7,6 C 7,2 C 6,1 C 98 % 15 lf 1013,2 hPa 0,0 l/m 0 min 0 min 0 W/m 6,3 km/h (2 Bft) 91,49 %
20.10.2016 20:00 7,6 C 7,2 C 6,1 C 98 % 15 lf 1013,2 hPa 0,0 l/m 0 min 0 min 0 W/m 6,3 km/h (2 Bft) 95,74 %
20.10.2016 20:02 7,6 C 6,7 C 5,6 C 98 % 15 lf 1013,2 hPa 0,0 l/m 0 min 0 min 0 W/m 8,4 km/h (2 Bft) 100,00 %
20.10.2016 20:04 7,6 C 6,7 C 5,6 C 98 % 15 lf 1013,2 hPa 0,0 l/m 0 min 0 min 0 W/m 6,3 km/h (2 Bft) 100,00 %
20.10.2016 20:06 7,5 C 6,7 C 5,6 C 98 % 15 lf 1013,2 hPa 0,0 l/m 0 min 0 min 0 W/m 6,3 km/h (2 Bft) 100,00 %
20.10.2016 20:08 7,5 C 6,7 C 5,6 C 98 % 15 lf 1013,3 hPa 0,0 l/m 0 min 0 min 0 W/m 6,3 km/h (2 Bft) 100,00 %
20.10.2016 20:10 7,4 C 6,7 C 5,6 C 98 % 15 lf 1013,3 hPa 0,0 l/m 0 min 0 min 0 W/m 6,3 km/h (2 Bft) 97,87 %
20.10.2016 20:12 7,4 C 6,7 C 5,6 C 98 % 15 lf 1013,2 hPa 0,0 l/m 0 min 0 min 0 W/m 4,2 km/h (1 Bft) 100,00 %
20.10.2016 20:14 7,4 C 6,7 C 5,6 C 98 % 15 lf 1013,2 hPa 0,0 l/m 0 min 0 min 0 W/m 4,2 km/h (1 Bft) 97,87 %
20.10.2016 20:16 7,4 C 6,1 C 5,0 C 98 % 15 lf 1013,2 hPa 0,0 l/m 0 min 0 min 0 W/m 4,2 km/h (1 Bft) 91,49 %
20.10.2016 20:18 7,4 C 6,1 C 5,0 C 98 % 15 lf 1013,2 hPa 0,0 l/m 0 min 0 min 0 W/m 4,2 km/h (1 Bft) 97,87 %
20.10.2016 20:20 7,3 C 6,1 C 5,0 C 98 % 15 lf 1013,2 hPa 0,0 l/m 0 min 0 min 0 W/m 4,2 km/h (1 Bft) 93,48 %
20.10.2016 20:22 7,3 C 6,1 C 4,4 C 98 % 15 lf 1013,2 hPa 0,0 l/m 0 min 0 min 0 W/m 2,1 km/h (1 Bft) 97,87 %
20.10.2016 20:24 7,3 C 6,1 C 4,4 C 98 % 15 lf 1013,2 hPa 0,0 l/m 0 min 0 min 0 W/m 0,0 km/h (0 Bft) 97,87 %
20.10.2016 20:26 7,3 C 5,6 C 4,4 C 98 % 15 lf 1013,2 hPa 0,0 l/m 0 min 0 min 0 W/m 0,0 km/h (0 Bft) 97,87 %
20.10.2016 20:28 7,2 C 5,6 C 4,4 C 98 % 15 lf 1013,2 hPa 0,0 l/m 0 min 0 min 0 W/m 0,0 km/h (0 Bft) 93,62 %
20.10.2016 20:30 7,2 C 5,6 C 4,4 C 98 % 15 lf 1013,2 hPa 0,0 l/m 0 min 0 min 0 W/m 6,3 km/h (2 Bft) 95,74 %
20.10.2016 20:32 7,2 C 5,6 C 4,4 C 98 % 15 lf 1013,3 hPa 0,0 l/m 0 min 0 min 0 W/m 6,3 km/h (2 Bft) 95,74 %
20.10.2016 20:34 7,1 C 5,6 C 5,0 C 98 % 15 lf 1013,3 hPa 0,0 l/m 0 min 0 min 0 W/m 8,4 km/h (2 Bft) 91,49 %
20.10.2016 20:36 7,1 C 6,1 C 5,0 C 98 % 15 lf 1013,3 hPa 0,0 l/m 0 min 0 min 0 W/m 8,4 km/h (2 Bft) 93,48 %
20.10.2016 20:38 7,0 C 6,1 C 5,0 C 98 % 15 lf 1013,3 hPa 0,0 l/m 0 min 0 min 0 W/m 8,4 km/h (2 Bft) 95,74 %
20.10.2016 20:40 7,0 C 6,1 C 5,0 C 98 % 15 lf 1013,4 hPa 0,0 l/m 0 min 0 min 0 W/m 8,4 km/h (2 Bft) 95,74 %
20.10.2016 20:42 6,9 C 6,1 C 4,4 C 98 % 15 lf 1013,3 hPa 0,0 l/m 0 min 0 min 0 W/m 6,3 km/h (2 Bft) 95,74 %
20.10.2016 20:44 6,9 C 5,6 C 4,4 C 98 % 15 lf 1013,4 hPa 0,0 l/m 0 min 0 min 0 W/m 6,3 km/h (2 Bft) 95,74 %
20.10.2016 20:46 6,9 C 5,6 C 4,4 C 98 % 15 lf 1013,4 hPa 0,0 l/m 0 min 0 min 0 W/m 8,4 km/h (2 Bft) 93,62 %
20.10.2016 20:48 6,9 C 5,6 C 4,4 C 98 % 15 lf 1013,4 hPa 0,0 l/m 0 min 0 min 0 W/m 8,4 km/h (2 Bft) 95,74 %
20.10.2016 20:50 6,8 C 5,6 C 4,4 C 98 % 15 lf 1013,4 hPa 0,0 l/m 0 min 0 min 0 W/m 4,2 km/h (1 Bft) 94,29 %
20.10.2016 20:52 6,8 C 5,6 C 3,9 C 98 % 15 lf 1013,4 hPa 0,0 l/m 0 min 0 min 0 W/m 4,2 km/h (1 Bft) 95,24 %
20.10.2016 20:54 6,8 C 5,6 C 3,9 C 98 % 15 lf 1013,3 hPa 0,0 l/m 0 min 0 min 0 W/m 6,3 km/h (2 Bft) 95,65 %
20.10.2016 20:56 6,8 C 5,6 C 3,9 C 98 % 15 lf 1013,4 hPa 0,0 l/m 0 min 0 min 0 W/m 4,2 km/h (1 Bft) 95,74 %
20.10.2016 20:58 6,7 C 5,6 C 3,9 C 98 % 15 lf 1013,3 hPa 0,0 l/m 0 min 0 min 0 W/m 4,2 km/h (1 Bft) 93,62 %
20.10.2016 21:00 6,7 C 5,6 C 3,9 C 98 % 15 lf 1013,3 hPa 0,0 l/m 0 min 0 min 0 W/m 4,2 km/h (1 Bft) 91,49 %
20.10.2016 21:02 6,7 C 5,0 C 3,9 C 98 % 15 lf 1013,3 hPa 0,0 l/m 0 min 0 min 0 W/m 4,2 km/h (1 Bft) 97,87 %
20.10.2016 21:04 6,6 C 5,0 C 3,9 C 98 % 15 lf 1013,3 hPa 0,0 l/m 0 min 0 min 0 W/m 4,2 km/h (1 Bft) 97,83 %
20.10.2016 21:06 6,6 C 5,0 C 3,9 C 98 % 15 lf 1013,3 hPa 0,0 l/m 0 min 0 min 0 W/m 2,1 km/h (1 Bft) 95,74 %
20.10.2016 21:08 6,6 C 5,0 C 3,9 C 98 % 15 lf 1013,3 hPa 0,0 l/m 0 min 0 min 0 W/m 2,1 km/h (1 Bft) 97,87 %
20.10.2016 21:10 6,5 C 5,0 C 3,9 C 98 % 15 lf 1013,3 hPa 0,0 l/m 0 min 0 min 0 W/m 4,2 km/h (1 Bft) 88,57 %
20.10.2016 21:12 6,5 C 5,0 C 3,9 C 98 % 15 lf 1013,4 hPa 0,0 l/m 0 min 0 min 0 W/m 4,2 km/h (1 Bft) 96,61 %
20.10.2016 21:14 6,4 C 5,6 C 3,9 C 98 % 15 lf 1013,4 hPa 0,0 l/m 0 min 0 min 0 W/m 2,1 km/h (1 Bft) 97,14 %
20.10.2016 21:16 6,4 C 5,6 C 4,4 C 98 % 15 lf 1013,4 hPa 0,0 l/m 0 min 0 min 0 W/m 4,2 km/h (1 Bft) 94,34 %
20.10.2016 21:18 6,4 C 5,6 C 4,4 C 98 % 15 lf 1013,4 hPa 0,0 l/m 0 min 0 min 0 W/m 4,2 km/h (1 Bft) 98,28 %
20.10.2016 21:20 6,4 C 5,6 C 4,4 C 98 % 15 lf 1013,4 hPa 0,0 l/m 0 min 0 min 0 W/m 4,2 km/h (1 Bft) 97,87 %
20.10.2016 21:22 6,3 C 5,6 C 4,4 C 98 % 15 lf 1013,4 hPa 0,0 l/m 0 min 0 min 0 W/m 2,1 km/h (1 Bft) 97,22 %
20.10.2016 21:24 6,3 C 5,6 C 4,4 C 98 % 15 lf 1013,4 hPa 0,0 l/m 0 min 0 min 0 W/m 2,1 km/h (1 Bft) 93,62 %
20.10.2016 21:26 6,3 C 5,6 C 5,0 C 98 % 15 lf 1013,3 hPa 0,0 l/m 0 min 0 min 0 W/m 2,1 km/h (1 Bft) 97,87 %
20.10.2016 21:28 6,3 C 5,6 C 5,0 C 98 % 15 lf 1013,4 hPa 0,0 l/m 0 min 0 min 0 W/m 4,2 km/h (1 Bft) 93,62 %
20.10.2016 21:30 6,3 C 5,6 C 5,0 C 98 % 15 lf 1013,5 hPa 0,0 l/m 0 min 0 min 0 W/m 6,3 km/h (2 Bft) 97,83 %
20.10.2016 21:32 6,2 C 5,6 C 5,0 C 98 % 15 lf 1013,4 hPa 0,0 l/m 0 min 0 min 0 W/m 6,3 km/h (2 Bft) 97,92 %
20.10.2016 21:34 6,2 C 6,1 C 5,0 C 98 % 15 lf 1013,4 hPa 0,0 l/m 0 min 0 min 0 W/m 6,3 km/h (2 Bft) 97,87 %
20.10.2016 21:36 6,2 C 6,1 C 5,0 C 98 % 15 lf 1013,4 hPa 0,0 l/m 0 min 0 min 0 W/m 2,1 km/h (1 Bft) 97,83 %
20.10.2016 21:38 6,2 C 6,1 C 5,0 C 98 % 15 lf 1013,4 hPa 0,0 l/m 0 min 0 min 0 W/m 6,3 km/h (2 Bft) 95,74 %
20.10.2016 21:40 6,2 C 6,1 C 5,0 C 98 % 15 lf 1013,4 hPa 0,0 l/m 0 min 0 min 0 W/m 4,2 km/h (1 Bft) 97,83 %
20.10.2016 21:42 6,2 C 6,1 C 5,0 C 98 % 15 lf 1013,4 hPa 0,0 l/m 0 min 0 min 0 W/m 6,3 km/h (2 Bft) 97,87 %
20.10.2016 21:44 6,2 C 6,1 C 5,0 C 98 % 15 lf 1013,4 hPa 0,0 l/m 0 min 0 min 0 W/m 4,2 km/h (1 Bft) 93,62 %
20.10.2016 21:46 6,2 C 6,1 C 5,0 C 98 % 15 lf 1013,4 hPa 0,0 l/m 0 min 0 min 0 W/m 2,1 km/h (1 Bft) 93,62 %
20.10.2016 21:48 6,2 C 6,1 C 5,0 C 98 % 15 lf 1013,4 hPa 0,0 l/m 0 min 0 min 0 W/m 4,2 km/h (1 Bft) 95,74 %
20.10.2016 21:50 6,2 C 6,1 C 5,0 C 98 % 15 lf 1013,5 hPa 0,0 l/m 0 min 0 min 0 W/m 6,3 km/h (2 Bft) 97,87 %
20.10.2016 21:52 6,2 C 6,1 C 5,0 C 98 % 15 lf 1013,5 hPa 0,0 l/m 0 min 0 min 0 W/m 4,2 km/h (1 Bft) 100,00 %
20.10.2016 21:54 6,2 C 6,1 C 5,0 C 98 % 15 lf 1013,4 hPa 0,0 l/m 0 min 0 min 0 W/m 2,1 km/h (1 Bft) 100,00 %
20.10.2016 21:56 6,2 C 6,1 C 5,0 C 98 % 15 lf 1013,6 hPa 0,0 l/m 0 min 0 min 0 W/m 4,2 km/h (1 Bft) 97,87 %
20.10.2016 21:58 6,2 C 6,1 C 5,0 C 98 % 15 lf 1013,6 hPa 0,0 l/m 0 min 0 min 0 W/m 2,1 km/h (1 Bft) 100,00 %
20.10.2016 22:00 6,2 C 6,1 C 5,0 C 98 % 15 lf 1013,6 hPa 0,0 l/m 0 min 0 min 0 W/m 2,1 km/h (1 Bft) 100,00 %
20.10.2016 22:03 6,2 C 6,1 C 5,0 C 98 % 15 lf 1013,6 hPa 0,0 l/m 0 min 0 min 0 W/m 6,3 km/h (2 Bft) 97,26 %
20.10.2016 22:04 6,2 C 6,1 C 5,0 C 98 % 15 lf 1013,6 hPa 0,0 l/m 0 min 0 min 0 W/m 4,2 km/h (1 Bft) 100,00 %
20.10.2016 22:06 6,2 C 6,1 C 5,0 C 98 % 15 lf 1013,7 hPa 0,0 l/m 0 min 0 min 0 W/m 6,3 km/h (2 Bft) 100,00 %
20.10.2016 22:08 6,2 C 6,1 C 5,0 C 98 % 15 lf 1013,7 hPa 0,0 l/m 0 min 0 min 0 W/m 8,4 km/h (2 Bft) 100,00 %
20.10.2016 22:10 6,2 C 6,1 C 5,0 C 98 % 15 lf 1013,7 hPa 0,0 l/m 0 min 0 min 0 W/m 6,3 km/h (2 Bft) 100,00 %
20.10.2016 22:12 6,2 C 6,1 C 5,0 C 98 % 15 lf 1013,6 hPa 0,0 l/m 0 min 0 min 0 W/m 8,4 km/h (2 Bft) 100,00 %
20.10.2016 22:14 6,3 C 6,1 C 5,0 C 98 % 15 lf 1013,6 hPa 0,0 l/m 0 min 0 min 0 W/m 8,4 km/h (2 Bft) 95,74 %
20.10.2016 22:16 6,3 C 6,1 C 5,0 C 98 % 15 lf 1013,7 hPa 0,0 l/m 0 min 0 min 0 W/m 6,3 km/h (2 Bft) 100,00 %
20.10.2016 22:18 6,3 C 6,1 C 5,0 C 98 % 15 lf 1013,7 hPa 0,0 l/m 0 min 0 min 0 W/m 6,3 km/h (2 Bft) 95,74 %
20.10.2016 22:20 6,3 C 6,1 C 5,0 C 98 % 15 lf 1013,7 hPa 0,0 l/m 0 min 0 min 0 W/m 6,3 km/h (2 Bft) 95,74 %
20.10.2016 22:22 6,3 C 6,1 C 5,0 C 98 % 15 lf 1013,7 hPa 0,0 l/m 0 min 0 min 0 W/m 6,3 km/h (2 Bft) 97,87 %
20.10.2016 22:24 6,3 C 6,1 C 5,0 C 98 % 15 lf 1013,7 hPa 0,0 l/m 0 min 0 min 0 W/m 4,2 km/h (1 Bft) 100,00 %
20.10.2016 22:26 6,3 C 6,1 C 5,0 C 98 % 15 lf 1013,7 hPa 0,0 l/m 0 min 0 min 0 W/m 4,2 km/h (1 Bft) 97,83 %
20.10.2016 22:28 6,3 C 6,1 C 5,0 C 98 % 15 lf 1013,7 hPa 0,0 l/m 0 min 0 min 0 W/m 4,2 km/h (1 Bft) 100,00 %
20.10.2016 22:30 6,3 C 6,1 C 5,0 C 98 % 15 lf 1013,8 hPa 0,0 l/m 0 min 0 min 0 W/m 2,1 km/h (1 Bft) 93,62 %
20.10.2016 22:32 6,3 C 6,1 C 5,0 C 98 % 15 lf 1013,9 hPa 0,0 l/m 0 min 0 min 0 W/m 4,2 km/h (1 Bft) 97,87 %
20.10.2016 22:34 6,3 C 6,1 C 5,0 C 98 % 15 lf 1013,9 hPa 0,0 l/m 0 min 0 min 0 W/m 4,2 km/h (1 Bft) 95,74 %
20.10.2016 22:36 6,3 C 6,1 C 5,0 C 98 % 15 lf 1013,8 hPa 0,0 l/m 0 min 0 min 0 W/m 6,3 km/h (2 Bft) 91,49 %
20.10.2016 22:38 6,3 C 6,1 C 5,0 C 98 % 15 lf 1013,8 hPa 0,0 l/m 0 min 0 min 0 W/m 4,2 km/h (1 Bft) 95,65 %
20.10.2016 22:40 6,3 C 6,1 C 5,0 C 98 % 15 lf 1013,9 hPa 0,0 l/m 0 min 0 min 0 W/m 4,2 km/h (1 Bft) 97,87 %
20.10.2016 22:42 6,3 C 6,1 C 5,0 C 98 % 15 lf 1014,0 hPa 0,0 l/m 0 min 0 min 0 W/m 4,2 km/h (1 Bft) 95,74 %
20.10.2016 22:44 6,3 C 6,1 C 5,0 C 98 % 15 lf 1014,0 hPa 0,0 l/m 0 min 0 min 0 W/m 2,1 km/h (1 Bft) 97,87 %
20.10.2016 22:46 6,3 C 6,1 C 5,0 C 98 % 15 lf 1014,0 hPa 0,0 l/m 0 min 0 min 0 W/m 4,2 km/h (1 Bft) 95,74 %
20.10.2016 22:48 6,3 C 6,1 C 5,0 C 98 % 15 lf 1014,0 hPa 0,0 l/m 0 min 0 min 0 W/m 2,1 km/h (1 Bft) 97,87 %
20.10.2016 22:50 6,3 C 6,1 C 5,0 C 98 % 15 lf 1014,1 hPa 0,0 l/m 0 min 0 min 0 W/m 6,3 km/h (2 Bft) 97,83 %
20.10.2016 22:52 6,3 C 6,1 C 5,0 C 98 % 15 lf 1014,1 hPa 0,0 l/m 0 min 0 min 0 W/m 4,2 km/h (1 Bft) 95,74 %
20.10.2016 22:54 6,3 C 6,1 C 5,6 C 98 % 15 lf 1014,1 hPa 0,0 l/m 0 min 0 min 0 W/m 4,2 km/h (1 Bft) 97,87 %
20.10.2016 22:56 6,4 C 6,1 C 5,6 C 98 % 15 lf 1014,1 hPa 0,0 l/m 0 min 0 min 0 W/m 6,3 km/h (2 Bft) 97,87 %
20.10.2016 22:58 6,4 C 6,1 C 5,6 C 98 % 15 lf 1014,1 hPa 0,0 l/m 0 min 0 min 0 W/m 4,2 km/h (1 Bft) 97,87 %
20.10.2016 23:00 6,4 C 6,7 C 5,6 C 98 % 15 lf 1014,1 hPa 0,0 l/m 0 min 0 min 0 W/m 6,3 km/h (2 Bft) 95,74 %
20.10.2016 23:02 6,4 C 6,1 C 5,6 C 98 % 15 lf 1014,1 hPa 0,0 l/m 0 min 0 min 0 W/m 4,2 km/h (1 Bft) 95,74 %
20.10.2016 23:04 6,4 C 6,1 C 5,6 C 98 % 15 lf 1014,1 hPa 0,0 l/m 0 min 0 min 0 W/m 6,3 km/h (2 Bft) 97,87 %
20.10.2016 23:06 6,4 C 6,1 C 5,6 C 98 % 15 lf 1014,2 hPa 0,0 l/m 0 min 0 min 0 W/m 4,2 km/h (1 Bft) 95,83 %
20.10.2016 23:08 6,4 C 6,7 C 5,6 C 98 % 15 lf 1014,2 hPa 0,0 l/m 0 min 0 min 0 W/m 6,3 km/h (2 Bft) 97,87 %
20.10.2016 23:10 6,4 C 6,7 C 5,6 C 98 % 15 lf 1014,2 hPa 0,0 l/m 0 min 0 min 0 W/m 6,3 km/h (2 Bft) 91,49 %
20.10.2016 23:12 6,4 C 6,7 C 5,6 C 98 % 15 lf 1014,1 hPa 0,0 l/m 0 min 0 min 0 W/m 4,2 km/h (1 Bft) 93,48 %
20.10.2016 23:14 6,4 C 6,7 C 5,6 C 98 % 15 lf 1014,2 hPa 0,0 l/m 0 min 0 min 0 W/m 4,2 km/h (1 Bft) 91,49 %
20.10.2016 23:16 6,4 C 6,7 C 5,6 C 98 % 15 lf 1014,1 hPa 0,0 l/m 0 min 0 min 0 W/m 4,2 km/h (1 Bft) 93,62 %
20.10.2016 23:18 6,4 C 6,7 C 5,6 C 98 % 15 lf 1014,1 hPa 0,0 l/m 0 min 0 min 0 W/m 4,2 km/h (1 Bft) 89,36 %
20.10.2016 23:20 6,4 C 6,7 C 5,6 C 98 % 15 lf 1014,1 hPa 0,0 l/m 0 min 0 min 0 W/m 4,2 km/h (1 Bft) 89,36 %
20.10.2016 23:22 6,4 C 6,7 C 5,6 C 98 % 15 lf 1014,1 hPa 0,0 l/m 0 min 0 min 0 W/m 4,2 km/h (1 Bft) 87,23 %
20.10.2016 23:24 6,4 C 6,7 C 5,6 C 98 % 15 lf 1014,1 hPa 0,0 l/m 0 min 0 min 0 W/m 0,0 km/h (0 Bft) 91,30 %
20.10.2016 23:26 6,4 C 6,1 C 5,6 C 98 % 15 lf 1014,1 hPa 0,0 l/m 0 min 0 min 0 W/m 2,1 km/h (1 Bft) 89,36 %
20.10.2016 23:28 6,4 C 6,1 C 5,6 C 98 % 15 lf 1014,2 hPa 0,0 l/m 0 min 0 min 0 W/m 2,1 km/h (1 Bft) 89,36 %
20.10.2016 23:30 6,4 C 6,1 C 5,6 C 98 % 15 lf 1014,2 hPa 0,0 l/m 0 min 0 min 0 W/m 0,0 km/h (0 Bft) 87,23 %
20.10.2016 23:32 6,4 C 6,1 C 5,6 C 98 % 15 lf 1014,2 hPa 0,0 l/m 0 min 0 min 0 W/m 4,2 km/h (1 Bft) 89,36 %
20.10.2016 23:34 6,4 C 6,1 C 5,6 C 98 % 15 lf 1014,2 hPa 0,0 l/m 0 min 0 min 0 W/m 4,2 km/h (1 Bft) 89,36 %
20.10.2016 23:36 6,4 C 6,1 C 5,6 C 98 % 15 lf 1014,1 hPa 0,0 l/m 0 min 0 min 0 W/m 4,2 km/h (1 Bft) 90,48 %
20.10.2016 23:38 6,4 C 6,1 C 5,6 C 98 % 15 lf 1014,2 hPa 0,0 l/m 0 min 0 min 0 W/m 2,1 km/h (1 Bft) 93,48 %
20.10.2016 23:40 6,4 C 6,7 C 5,6 C 98 % 15 lf 1014,2 hPa 0,0 l/m 0 min 0 min 0 W/m 4,2 km/h (1 Bft) 89,36 %
20.10.2016 23:42 6,4 C 6,1 C 5,6 C 98 % 15 lf 1014,1 hPa 0,0 l/m 0 min 0 min 0 W/m 2,1 km/h (1 Bft) 93,62 %
20.10.2016 23:44 6,4 C 6,1 C 5,6 C 98 % 15 lf 1014,2 hPa 0,0 l/m 0 min 0 min 0 W/m 4,2 km/h (1 Bft) 93,62 %
20.10.2016 23:46 6,4 C 6,1 C 5,6 C 98 % 15 lf 1014,2 hPa 0,0 l/m 0 min 0 min 0 W/m 2,1 km/h (1 Bft) 91,49 %
20.10.2016 23:48 6,4 C 6,1 C 5,6 C 98 % 15 lf 1014,2 hPa 0,0 l/m 0 min 0 min 0 W/m 0,0 km/h (0 Bft) 93,62 %
20.10.2016 23:50 6,4 C 6,1 C 5,6 C 98 % 15 lf 1014,2 hPa 0,0 l/m 0 min 0 min 0 W/m 0,0 km/h (0 Bft) 93,48 %
20.10.2016 23:52 6,4 C 6,1 C 5,6 C 98 % 15 lf 1014,1 hPa 0,0 l/m 0 min 0 min 0 W/m 0,0 km/h (0 Bft) 93,75 %
20.10.2016 23:54 6,4 C 6,1 C 5,6 C 98 % 15 lf 1014,1 hPa 0,0 l/m 0 min 0 min 0 W/m 0,0 km/h (0 Bft) 97,87 %
20.10.2016 23:56 6,4 C 6,1 C 5,6 C 98 % 15 lf 1014,1 hPa 0,0 l/m 0 min 0 min 0 W/m 0,0 km/h (0 Bft) 95,74 %
20.10.2016 23:58 6,4 C 6,7 C 5,6 C 98 % 15 lf 1014,1 hPa 0,0 l/m 0 min 0 min 0 W/m 0,0 km/h (0 Bft) 97,87 %
_ Min-Zeit 21:30 21:02 20:52 00:00 00:28 15:34 - - - - 00:44 00:02
Minimum _ 6,2 C 5,0 C 3,9 C 94 % 3 lf 1011,1 hPa - - - - 0,0 km/h (0 Bft) 86,84 %
_ Max-Zeit 14:40 11:38 10:50 14:38 00:58 00:52 03:54 00:00 00:52 14:34 03:54 00:30
Maximum _ 8,3 C 8,9 C 7,8 C 99 % 15 lf 1014,3 hPa 0,6 l/m 0 min 2 min 103 W/m 27,2 km/h
O (4 Bft)
100,00 %
Durchschnitt _ 7,5 C 7,3 C 6,4 C 98 % 15 lf 1012,5 hPa #18,0 l/m #0 min. #11:56 h 40 W/m 6,6 km/h (2 Bft) 95,99 %
© 2016 W. Hausmann